Observation data for Palo Duro Canyon State Park Rim on 12/10/2018      Previous  Date       Current Mesonet Observations  Soil Data  Daily Summary Page  Observations in Plain Language
KPD1 100600Z 27007KT M01/M08 A3037 RMK A01 T10111084  RH  057%=      5-min Rain = 0
KPD1 100601Z 27006KT M01/M08 A3037 RMK A01 T10111084  RH  058%=      5-min Rain = 0
KPD1 100602Z 27006KT M01/M08 A3037 RMK A01 T10111084  RH  058%=      5-min Rain = 0
KPD1 100603Z 28006KT M01/M08 A3037 RMK A01 T10111084  RH  058%=      5-min Rain = 0
KPD1 100604Z 27006KT M01/M08 A3037 RMK A01 T10101083  RH  058%=      5-min Rain = 0
KPD1 100605Z 27006KT M01/M08 A3037 RMK A01 T10101084  RH  058%=      5-min Rain = 0
KPD1 100606Z 27006KT M01/M08 A3037 RMK A01 T10101084  RH  057%=      5-min Rain = 0
KPD1 100607Z 27006KT M01/M08 A3037 RMK A01 T10091083  RH  057%=      5-min Rain = 0
KPD1 100608Z 27007KT M01/M08 A3037 RMK A01 T10091084  RH  057%=      5-min Rain = 0
KPD1 100609Z 27007KT M01/M08 A3037 RMK A01 T10091084  RH  057%=      5-min Rain = 0
KPD1 100610Z 27007KT M01/M08 A3037 RMK A01 T10091083  RH  057%=      5-min Rain = 0
KPD1 100611Z 27007KT M01/M08 A3037 RMK A01 T10091084  RH  057%=      5-min Rain = 0
KPD1 100612Z 27007KT M01/M08 A3037 RMK A01 T10091083  RH  057%=      5-min Rain = 0
KPD1 100613Z 27007KT M01/M08 A3037 RMK A01 T10091083  RH  057%=      5-min Rain = 0
KPD1 100614Z 27007KT M01/M08 A3037 RMK A01 T10101083  RH  057%=      5-min Rain = 0
KPD1 100615Z 27007KT M01/M08 A3037 RMK A01 T10101084  RH  057%=      5-min Rain = 0
KPD1 100616Z 27007KT M01/M08 A3037 RMK A01 T10111084  RH  058%=      5-min Rain = 0
KPD1 100617Z 27006KT M01/M08 A3037 RMK A01 T10111084  RH  058%=      5-min Rain = 0
KPD1 100618Z 27006KT M01/M08 A3037 RMK A01 T10111084  RH  058%=      5-min Rain = 0
KPD1 100619Z 27007KT M01/M08 A3036 RMK A01 T10111084  RH  058%=      5-min Rain = 0
KPD1 100620Z 26007KT M01/M08 A3036 RMK A01 T10111084  RH  058%=      5-min Rain = 0
KPD1 100621Z 26007KT M01/M08 A3036 RMK A01 T10121084  RH  058%=      5-min Rain = 0
KPD1 100622Z 26007KT M01/M08 A3036 RMK A01 T10121084  RH  058%=      5-min Rain = 0
KPD1 100623Z 27008KT M01/M08 A3036 RMK A01 T10121084  RH  058%=      5-min Rain = 0
KPD1 100624Z 26008KT M01/M08 A3036 RMK A01 T10121083  RH  058%=      5-min Rain = 0
KPD1 100625Z 26008KT M01/M08 A3036 RMK A01 T10121083  RH  059%=      5-min Rain = 0
KPD1 100626Z 26007KT M01/M08 A3036 RMK A01 T10131083  RH  059%=      5-min Rain = 0
KPD1 100627Z 26008KT M01/M08 A3036 RMK A01 T10131083  RH  059%=      5-min Rain = 0
KPD1 100628Z 26008KT M01/M08 A3036 RMK A01 T10131083  RH  059%=      5-min Rain = 0
KPD1 100629Z 26008KT M01/M08 A3036 RMK A01 T10131083  RH  059%=      5-min Rain = 0
KPD1 100630Z 26008KT M01/M08 A3036 RMK A01 T10131083  RH  059%=      5-min Rain = 0
KPD1 100631Z 26008KT M01/M08 A3036 RMK A01 T10141083  RH  059%=      5-min Rain = 0
KPD1 100632Z 26008KT M01/M08 A3036 RMK A01 T10141083  RH  059%=      5-min Rain = 0
KPD1 100633Z 26007KT M01/M08 A3036 RMK A01 T10141083  RH  060%=      5-min Rain = 0
KPD1 100634Z 26007KT M02/M08 A3036 RMK A01 T10151083  RH  060%=      5-min Rain = 0
KPD1 100635Z 26008KT M02/M08 A3036 RMK A01 T10151082  RH  060%=      5-min Rain = 0
KPD1 100636Z 26007KT M02/M08 A3036 RMK A01 T10161083  RH  060%=      5-min Rain = 0
KPD1 100637Z 26008KT M02/M08 A3036 RMK A01 T10161083  RH  060%=      5-min Rain = 0
KPD1 100638Z 26008KT M02/M08 A3036 RMK A01 T10161083  RH  061%=      5-min Rain = 0
KPD1 100639Z 26009KT M02/M08 A3035 RMK A01 T10161082  RH  061%=      5-min Rain = 0
KPD1 100640Z 26009KT M02/M08 A3035 RMK A01 T10161082  RH  061%=      5-min Rain = 0
KPD1 100641Z 26009KT M02/M08 A3035 RMK A01 T10151081  RH  061%=      5-min Rain = 0
KPD1 100642Z 26009KT M01/M08 A3035 RMK A01 T10141081  RH  060%=      5-min Rain = 0
KPD1 100643Z 26009KT M01/M08 A3035 RMK A01 T10141081  RH  060%=      5-min Rain = 0
KPD1 100644Z 26008KT M01/M08 A3035 RMK A01 T10141081  RH  060%=      5-min Rain = 0
KPD1 100645Z 26008KT M02/M08 A3035 RMK A01 T10151082  RH  060%=      5-min Rain = 0
KPD1 100646Z 26008KT M02/M08 A3035 RMK A01 T10151082  RH  060%=      5-min Rain = 0
KPD1 100647Z 26009KT M02/M08 A3035 RMK A01 T10161082  RH  061%=      5-min Rain = 0
KPD1 100648Z 27008KT M02/M08 A3035 RMK A01 T10161081  RH  061%=      5-min Rain = 0
KPD1 100649Z 26008KT M02/M08 A3035 RMK A01 T10161081  RH  061%=      5-min Rain = 0
KPD1 100650Z 27007KT M02/M08 A3035 RMK A01 T10161080  RH  062%=      5-min Rain = 0
KPD1 100651Z 27007KT M02/M08 A3035 RMK A01 T10161080  RH  062%=      5-min Rain = 0
KPD1 100652Z 27008KT M02/M08 A3035 RMK A01 T10161080  RH  062%=      5-min Rain = 0
KPD1 100653Z 27008KT M02/M08 A3035 RMK A01 T10161080  RH  062%=      5-min Rain = 0
KPD1 100654Z 27008KT M02/M08 A3035 RMK A01 T10161080  RH  062%=      5-min Rain = 0
KPD1 100655Z 27007KT M02/M08 A3035 RMK A01 T10161080  RH  062%=      5-min Rain = 0
KPD1 100656Z 27007KT M02/M08 A3035 RMK A01 T10151079  RH  061%=      5-min Rain = 0
KPD1 100657Z 27007KT M01/M08 A3035 RMK A01 T10141079  RH  061%=      5-min Rain = 0
KPD1 100658Z 27007KT M01/M08 A3035 RMK A01 T10131079  RH  061%=      5-min Rain = 0
KPD1 100659Z 27007KT M01/M08 A3034 RMK A01 T10141080  RH  061%=      5-min Rain = 0
KPD1 100700Z 27007KT M01/M08 A3034 RMK A01 T10131080  RH  061%=      5-min Rain = 0
KPD1 100701Z 27006KT M01/M08 A3034 RMK A01 T10131080  RH  060%=      5-min Rain = 0
KPD1 100702Z 27006KT M01/M08 A3034 RMK A01 T10131080  RH  060%=      5-min Rain = 0
KPD1 100703Z 26006KT M01/M08 A3035 RMK A01 T10131081  RH  060%=      5-min Rain = 0
KPD1 100704Z 26007KT M01/M08 A3034 RMK A01 T10131080  RH  060%=      5-min Rain = 0
KPD1 100705Z 27007KT M01/M08 A3035 RMK A01 T10141081  RH  060%=      5-min Rain = 0
KPD1 100706Z 27007KT M01/M08 A3034 RMK A01 T10141081  RH  060%=      5-min Rain = 0
KPD1 100707Z 27008KT M02/M08 A3034 RMK A01 T10151082  RH  060%=      5-min Rain = 0
KPD1 100708Z 27008KT M02/M08 A3034 RMK A01 T10151082  RH  060%=      5-min Rain = 0
KPD1 100709Z 27008KT M01/M08 A3034 RMK A01 T10141081  RH  060%=      5-min Rain = 0
KPD1 100710Z 27008KT M01/M08 A3034 RMK A01 T10141081  RH  060%=      5-min Rain = 0
KPD1 100711Z 27008KT M01/M08 A3034 RMK A01 T10141082  RH  060%=      5-min Rain = 0
KPD1 100712Z 27007KT M02/M08 A3034 RMK A01 T10151082  RH  060%=      5-min Rain = 0
KPD1 100713Z 27008KT M02/M08 A3034 RMK A01 T10161083  RH  060%=      5-min Rain = 0
KPD1 100714Z 27008KT M02/M08 A3034 RMK A01 T10161083  RH  060%=      5-min Rain = 0
KPD1 100715Z 27008KT M02/M08 A3034 RMK A01 T10161083  RH  060%=      5-min Rain = 0
KPD1 100716Z 27008KT M02/M08 A3034 RMK A01 T10161083  RH  060%=      5-min Rain = 0
KPD1 100717Z 27008KT M02/M08 A3034 RMK A01 T10161083  RH  060%=      5-min Rain = 0
KPD1 100718Z 27008KT M02/M08 A3034 RMK A01 T10161083  RH  060%=      5-min Rain = 0
KPD1 100719Z 27008KT M02/M08 A3034 RMK A01 T10151083  RH  060%=      5-min Rain = 0
KPD1 100720Z 27008KT M02/M08 A3034 RMK A01 T10161083  RH  060%=      5-min Rain = 0
KPD1 100721Z 27008KT M02/M08 A3034 RMK A01 T10151083  RH  060%=      5-min Rain = 0
KPD1 100722Z 27008KT M01/M08 A3034 RMK A01 T10141083  RH  060%=      5-min Rain = 0
KPD1 100723Z 27008KT M02/M08 A3034 RMK A01 T10151084  RH  059%=      5-min Rain = 0
KPD1 100724Z 27007KT M01/M08 A3034 RMK A01 T10141084  RH  059%=      5-min Rain = 0
KPD1 100725Z 27007KT M01/M08 A3034 RMK A01 T10141083  RH  059%=      5-min Rain = 0
KPD1 100726Z 27007KT M01/M08 A3034 RMK A01 T10141084  RH  059%=      5-min Rain = 0
KPD1 100727Z 27007KT M01/M08 A3034 RMK A01 T10141084  RH  059%=      5-min Rain = 0
KPD1 100728Z 27007KT M01/M08 A3034 RMK A01 T10131084  RH  059%=      5-min Rain = 0
KPD1 100729Z 27007KT M01/M08 A3034 RMK A01 T10141084  RH  059%=      5-min Rain = 0
KPD1 100730Z 27007KT M01/M08 A3034 RMK A01 T10141084  RH  059%=      5-min Rain = 0
KPD1 100731Z 27007KT M01/M08 A3034 RMK A01 T10141084  RH  059%=      5-min Rain = 0
KPD1 100732Z 27008KT M01/M09 A3034 RMK A01 T10141085  RH  059%=      5-min Rain = 0
KPD1 100733Z 27007KT M01/M09 A3034 RMK A01 T10141085  RH  059%=      5-min Rain = 0
KPD1 100734Z 27008KT M01/M08 A3034 RMK A01 T10141084  RH  059%=      5-min Rain = 0
KPD1 100735Z 27008KT M02/M09 A3034 RMK A01 T10151085  RH  059%=      5-min Rain = 0
KPD1 100736Z 27007KT M02/M09 A3034 RMK A01 T10151085  RH  059%=      5-min Rain = 0
KPD1 100737Z 27008KT M02/M09 A3034 RMK A01 T10161085  RH  059%=      5-min Rain = 0
KPD1 100738Z 27007KT M02/M09 A3034 RMK A01 T10161085  RH  059%=      5-min Rain = 0
KPD1 100739Z 27007KT M02/M09 A3034 RMK A01 T10171086  RH  059%=      5-min Rain = 0
KPD1 100740Z 27008KT M02/M09 A3034 RMK A01 T10181086  RH  059%=      5-min Rain = 0
KPD1 100741Z 27007KT M02/M09 A3034 RMK A01 T10181086  RH  060%=      5-min Rain = 0
KPD1 100742Z 27008KT M02/M09 A3034 RMK A01 T10191087  RH  060%=      5-min Rain = 0
KPD1 100743Z 27009KT M02/M09 A3034 RMK A01 T10191086  RH  060%=      5-min Rain = 0
KPD1 100744Z 27009KT M02/M09 A3034 RMK A01 T10201086  RH  061%=      5-min Rain = 0
KPD1 100745Z 27010KT M02/M09 A3034 RMK A01 T10211087  RH  061%=      5-min Rain = 0
KPD1 100746Z 27009KT M02/M09 A3034 RMK A01 T10211087  RH  061%=      5-min Rain = 0
KPD1 100747Z 27009KT M02/M09 A3034 RMK A01 T10221087  RH  061%=      5-min Rain = 0
KPD1 100748Z 27009KT M02/M09 A3034 RMK A01 T10231087  RH  061%=      5-min Rain = 0
KPD1 100749Z 27009KT M02/M09 A3034 RMK A01 T10241087  RH  062%=      5-min Rain = 0
KPD1 100750Z 28009KT M02/M09 A3034 RMK A01 T10241087  RH  062%=      5-min Rain = 0
KPD1 100751Z 27009KT M02/M09 A3033 RMK A01 T10241087  RH  062%=      5-min Rain = 0
KPD1 100752Z 27009KT M02/M09 A3033 RMK A01 T10241087  RH  062%=      5-min Rain = 0
KPD1 100753Z 27009KT M03/M09 A3033 RMK A01 T10251088  RH  062%=      5-min Rain = 0
KPD1 100754Z 27009KT M03/M09 A3033 RMK A01 T10261088  RH  062%=      5-min Rain = 0
KPD1 100755Z 27009KT M03/M09 A3033 RMK A01 T10271088  RH  063%=      5-min Rain = 0
KPD1 100756Z 27009KT M03/M09 A3033 RMK A01 T10271088  RH  063%=      5-min Rain = 0
KPD1 100757Z 27008KT M03/M09 A3033 RMK A01 T10261088  RH  063%=      5-min Rain = 0
KPD1 100758Z 27008KT M03/M09 A3033 RMK A01 T10271088  RH  063%=      5-min Rain = 0
KPD1 100759Z 27009KT M03/M09 A3033 RMK A01 T10261088  RH  063%=      5-min Rain = 0
KPD1 100800Z 27009KT M03/M09 A3033 RMK A01 T10271088  RH  063%=      5-min Rain = 0
KPD1 100801Z 27008KT M03/M09 A3033 RMK A01 T10271088  RH  063%=      5-min Rain = 0
KPD1 100802Z 27008KT M03/M09 A3033 RMK A01 T10261088  RH  063%=      5-min Rain = 0
KPD1 100803Z 27008KT M03/M09 A3033 RMK A01 T10261088  RH  062%=      5-min Rain = 0
KPD1 100804Z 27008KT M03/M09 A3033 RMK A01 T10261088  RH  062%=      5-min Rain = 0
KPD1 100805Z 27007KT M03/M09 A3033 RMK A01 T10251088  RH  062%=      5-min Rain = 0
KPD1 100806Z 27008KT M03/M09 A3033 RMK A01 T10251088  RH  062%=      5-min Rain = 0
KPD1 100807Z 27008KT M03/M09 A3033 RMK A01 T10261088  RH  062%=      5-min Rain = 0
KPD1 100808Z 27008KT M03/M09 A3033 RMK A01 T10261089  RH  062%=      5-min Rain = 0
KPD1 100809Z 27009KT M03/M09 A3033 RMK A01 T10271089  RH  062%=      5-min Rain = 0
KPD1 100810Z 27009KT M03/M09 A3033 RMK A01 T10261088  RH  062%=      5-min Rain = 0
KPD1 100811Z 27008KT M03/M09 A3033 RMK A01 T10271089  RH  062%=      5-min Rain = 0
KPD1 100812Z 27009KT M03/M09 A3033 RMK A01 T10271089  RH  062%=      5-min Rain = 0
KPD1 100813Z 27009KT M03/M09 A3033 RMK A01 T10271089  RH  062%=      5-min Rain = 0
KPD1 100814Z 27009KT M03/M09 A3033 RMK A01 T10281089  RH  063%=      5-min Rain = 0
KPD1 100815Z 27009KT M03/M09 A3033 RMK A01 T10271089  RH  063%=      5-min Rain = 0
KPD1 100816Z 28009KT M03/M09 A3033 RMK A01 T10271089  RH  063%=      5-min Rain = 0
KPD1 100817Z 27008KT M03/M09 A3033 RMK A01 T10281089  RH  063%=      5-min Rain = 0
KPD1 100818Z 27009KT M03/M09 A3034 RMK A01 T10291090  RH  063%=      5-min Rain = 0
KPD1 100819Z 27009KT M03/M09 A3034 RMK A01 T10291090  RH  063%=      5-min Rain = 0
KPD1 100820Z 27009KT M03/M09 A3034 RMK A01 T10291090  RH  063%=      5-min Rain = 0
KPD1 100821Z 27009KT M03/M09 A3034 RMK A01 T10291089  RH  063%=      5-min Rain = 0
KPD1 100822Z 27009KT M03/M09 A3034 RMK A01 T10291089  RH  063%=      5-min Rain = 0
KPD1 100823Z 27009KT M03/M09 A3033 RMK A01 T10291089  RH  063%=      5-min Rain = 0
KPD1 100824Z 27010KT M03/M09 A3033 RMK A01 T10291089  RH  063%=      5-min Rain = 0
KPD1 100825Z 27010KT M03/M09 A3033 RMK A01 T10301089  RH  063%=      5-min Rain = 0
KPD1 100826Z 27009KT M03/M09 A3033 RMK A01 T10311090  RH  064%=      5-min Rain = 0
KPD1 100827Z 27009KT M03/M09 A3033 RMK A01 T10311090  RH  064%=      5-min Rain = 0
KPD1 100828Z 27009KT M03/M09 A3034 RMK A01 T10321090  RH  064%=      5-min Rain = 0
KPD1 100829Z 28009KT M03/M09 A3034 RMK A01 T10321090  RH  064%=      5-min Rain = 0
KPD1 100830Z 27009KT M03/M09 A3033 RMK A01 T10331090  RH  065%=      5-min Rain = 0
KPD1 100831Z 27010KT M03/M09 A3033 RMK A01 T10321089  RH  065%=      5-min Rain = 0
KPD1 100832Z 27009KT M03/M09 A3033 RMK A01 T10331089  RH  065%=      5-min Rain = 0
KPD1 100833Z 28009KT M03/M09 A3033 RMK A01 T10331088  RH  065%=      5-min Rain = 0
KPD1 100834Z 28008KT M03/M09 A3033 RMK A01 T10331088  RH  065%=      5-min Rain = 0
KPD1 100835Z 28009KT M03/M09 A3033 RMK A01 T10331088  RH  066%=      5-min Rain = 0
KPD1 100836Z 28008KT M03/M09 A3033 RMK A01 T10331088  RH  066%=      5-min Rain = 0
KPD1 100837Z 28009KT M03/M09 A3033 RMK A01 T10331088  RH  066%=      5-min Rain = 0
KPD1 100838Z 28009KT M03/M09 A3033 RMK A01 T10331088  RH  066%=      5-min Rain = 0
KPD1 100839Z 28009KT M03/M09 A3033 RMK A01 T10331088  RH  066%=      5-min Rain = 0
KPD1 100840Z 28009KT M03/M09 A3033 RMK A01 T10331088  RH  066%=      5-min Rain = 0
KPD1 100841Z 28009KT M03/M09 A3033 RMK A01 T10331087  RH  066%=      5-min Rain = 0
KPD1 100842Z 28009KT M03/M09 A3033 RMK A01 T10331087  RH  066%=      5-min Rain = 0
KPD1 100843Z 28009KT M03/M09 A3033 RMK A01 T10321086  RH  066%=      5-min Rain = 0
KPD1 100844Z 28009KT M03/M09 A3033 RMK A01 T10311086  RH  066%=      5-min Rain = 0
KPD1 100845Z 27010KT M03/M09 A3033 RMK A01 T10311086  RH  066%=      5-min Rain = 0
KPD1 100846Z 28010KT M03/M09 A3033 RMK A01 T10301086  RH  066%=      5-min Rain = 0
KPD1 100847Z 28010KT M03/M09 A3033 RMK A01 T10301085  RH  066%=      5-min Rain = 0
KPD1 100848Z 27010KT M03/M09 A3033 RMK A01 T10291085  RH  065%=      5-min Rain = 0
KPD1 100849Z 28010KT M03/M09 A3033 RMK A01 T10301086  RH  065%=      5-min Rain = 0
KPD1 100850Z 27011KT M03/M09 A3033 RMK A01 T10301086  RH  065%=      5-min Rain = 0
KPD1 100851Z 28010KT M03/M09 A3033 RMK A01 T10301086  RH  065%=      5-min Rain = 0
KPD1 100852Z 28011KT M03/M09 A3033 RMK A01 T10291085  RH  065%=      5-min Rain = 0
KPD1 100853Z 28010KT M03/M09 A3033 RMK A01 T10281085  RH  065%=      5-min Rain = 0
KPD1 100854Z 27010KT M03/M09 A3033 RMK A01 T10281085  RH  065%=      5-min Rain = 0
KPD1 100855Z 27010KT M03/M09 A3033 RMK A01 T10281085  RH  065%=      5-min Rain = 0
KPD1 100856Z 28010KT M03/M09 A3033 RMK A01 T10281085  RH  065%=      5-min Rain = 0
KPD1 100857Z 28010KT M03/M09 A3033 RMK A01 T10281085  RH  065%=      5-min Rain = 0
KPD1 100858Z 27010KT M03/M09 A3033 RMK A01 T10281085  RH  065%=      5-min Rain = 0
KPD1 100859Z 28011KT M03/M09 A3033 RMK A01 T10291086  RH  065%=      5-min Rain = 0
KPD1 100900Z 28010KT M03/M09 A3033 RMK A01 T10291086  RH  065%=      5-min Rain = 0
KPD1 100901Z 28010KT M03/M09 A3033 RMK A01 T10291086  RH  065%=      5-min Rain = 0
KPD1 100902Z 27010KT M03/M09 A3033 RMK A01 T10291086  RH  065%=      5-min Rain = 0
KPD1 100903Z 28010KT M03/M09 A3033 RMK A01 T10301086  RH  065%=      5-min Rain = 0
KPD1 100904Z 28011KT M03/M09 A3033 RMK A01 T10311087  RH  065%=      5-min Rain = 0
KPD1 100905Z 28010KT M03/M09 A3033 RMK A01 T10321087  RH  066%=      5-min Rain = 0
KPD1 100906Z 28010KT M03/M09 A3033 RMK A01 T10321086  RH  066%=      5-min Rain = 0
KPD1 100907Z 28009KT M03/M09 A3033 RMK A01 T10331087  RH  066%=      5-min Rain = 0
KPD1 100908Z 28010KT M03/M09 A3033 RMK A01 T10331087  RH  066%=      5-min Rain = 0
KPD1 100909Z 28010KT M03/M09 A3033 RMK A01 T10331087  RH  067%=      5-min Rain = 0
KPD1 100910Z 28009KT M03/M09 A3033 RMK A01 T10331086  RH  067%=      5-min Rain = 0
KPD1 100911Z 28010KT M03/M09 A3033 RMK A01 T10341087  RH  067%=      5-min Rain = 0
KPD1 100912Z 28010KT M03/M09 A3033 RMK A01 T10341086  RH  067%=      5-min Rain = 0
KPD1 100913Z 28010KT M03/M09 A3033 RMK A01 T10341086  RH  067%=      5-min Rain = 0
KPD1 100914Z 27010KT M03/M09 A3033 RMK A01 T10341086  RH  067%=      5-min Rain = 0
KPD1 100915Z 28010KT M03/M09 A3033 RMK A01 T10341086  RH  067%=      5-min Rain = 0
KPD1 100916Z 27010KT M03/M09 A3033 RMK A01 T10341085  RH  067%=      5-min Rain = 0
KPD1 100917Z 28009KT M03/M09 A3033 RMK A01 T10341086  RH  067%=      5-min Rain = 0
KPD1 100918Z 28010KT M03/M09 A3033 RMK A01 T10341086  RH  067%=      5-min Rain = 0
KPD1 100919Z 27010KT M03/M09 A3033 RMK A01 T10341086  RH  067%=      5-min Rain = 0
KPD1 100920Z 28009KT M04/M09 A3033 RMK A01 T10351086  RH  067%=      5-min Rain = 0
KPD1 100921Z 28010KT M04/M09 A3033 RMK A01 T10351086  RH  068%=      5-min Rain = 0
KPD1 100922Z 28009KT M04/M09 A3033 RMK A01 T10351086  RH  068%=      5-min Rain = 0
KPD1 100923Z 28010KT M04/M09 A3033 RMK A01 T10361087  RH  068%=      5-min Rain = 0
KPD1 100924Z 28010KT M04/M09 A3033 RMK A01 T10351086  RH  068%=      5-min Rain = 0
KPD1 100925Z 27010KT M04/M09 A3033 RMK A01 T10351086  RH  068%=      5-min Rain = 0
KPD1 100926Z 28009KT M03/M09 A3033 RMK A01 T10341085  RH  068%=      5-min Rain = 0
KPD1 100927Z 28009KT M03/M09 A3033 RMK A01 T10331085  RH  067%=      5-min Rain = 0
KPD1 100928Z 28009KT M03/M09 A3033 RMK A01 T10331085  RH  067%=      5-min Rain = 0
KPD1 100929Z 28009KT M03/M09 A3033 RMK A01 T10331086  RH  067%=      5-min Rain = 0
KPD1 100930Z 28008KT M03/M09 A3033 RMK A01 T10321086  RH  067%=      5-min Rain = 0
KPD1 100931Z 28008KT M03/M09 A3033 RMK A01 T10321086  RH  067%=      5-min Rain = 0
KPD1 100932Z 29008KT M03/M09 A3033 RMK A01 T10331086  RH  067%=      5-min Rain = 0
KPD1 100933Z 28007KT M03/M09 A3033 RMK A01 T10331086  RH  067%=      5-min Rain = 0
KPD1 100934Z 29007KT M03/M09 A3033 RMK A01 T10331086  RH  067%=      5-min Rain = 0
KPD1 100935Z 29008KT M03/M09 A3033 RMK A01 T10331086  RH  067%=      5-min Rain = 0
KPD1 100936Z 28007KT M03/M09 A3033 RMK A01 T10331086  RH  067%=      5-min Rain = 0
KPD1 100937Z 28008KT M03/M09 A3033 RMK A01 T10331086  RH  067%=      5-min Rain = 0
KPD1 100938Z 28009KT M03/M09 A3033 RMK A01 T10341087  RH  067%=      5-min Rain = 0
KPD1 100939Z 28009KT M03/M09 A3033 RMK A01 T10341087  RH  067%=      5-min Rain = 0
KPD1 100940Z 28008KT M03/M09 A3033 RMK A01 T10341086  RH  067%=      5-min Rain = 0
KPD1 100941Z 28009KT M03/M09 A3033 RMK A01 T10341087  RH  067%=      5-min Rain = 0
KPD1 100942Z 28009KT M04/M09 A3033 RMK A01 T10351087  RH  067%=      5-min Rain = 0
KPD1 100943Z 28009KT M04/M09 A3033 RMK A01 T10351087  RH  067%=      5-min Rain = 0
KPD1 100944Z 28009KT M04/M09 A3033 RMK A01 T10351087  RH  067%=      5-min Rain = 0
KPD1 100945Z 28010KT M03/M09 A3033 RMK A01 T10341086  RH  067%=      5-min Rain = 0
KPD1 100946Z 28009KT M03/M09 A3033 RMK A01 T10341086  RH  067%=      5-min Rain = 0
KPD1 100947Z 28009KT M03/M09 A3033 RMK A01 T10341086  RH  067%=      5-min Rain = 0
KPD1 100948Z 28008KT M03/M09 A3033 RMK A01 T10341087  RH  067%=      5-min Rain = 0
KPD1 100949Z 29009KT M04/M09 A3033 RMK A01 T10351087  RH  067%=      5-min Rain = 0
KPD1 100950Z 29010KT M04/M09 A3032 RMK A01 T10351087  RH  067%=      5-min Rain = 0
KPD1 100951Z 29010KT M04/M09 A3032 RMK A01 T10351087  RH  067%=      5-min Rain = 0
KPD1 100952Z 28009KT M04/M09 A3032 RMK A01 T10351087  RH  068%=      5-min Rain = 0
KPD1 100953Z 29010KT M04/M09 A3032 RMK A01 T10351086  RH  068%=      5-min Rain = 0
KPD1 100954Z 28010KT M04/M09 A3032 RMK A01 T10351087  RH  068%=      5-min Rain = 0
KPD1 100955Z 28009KT M04/M09 A3032 RMK A01 T10351086  RH  068%=      5-min Rain = 0
KPD1 100956Z 28008KT M04/M09 A3032 RMK A01 T10351086  RH  067%=      5-min Rain = 0
KPD1 100957Z 28009KT M04/M09 A3032 RMK A01 T10361087  RH  068%=      5-min Rain = 0
KPD1 100958Z 27009KT M04/M09 A3032 RMK A01 T10361087  RH  068%=      5-min Rain = 0
KPD1 100959Z 28009KT M04/M09 A3032 RMK A01 T10371087  RH  068%=      5-min Rain = 0
KPD1 101000Z 28008KT M04/M09 A3032 RMK A01 T10371087  RH  068%=      5-min Rain = 0
KPD1 101001Z 28009KT M04/M09 A3032 RMK A01 T10371087  RH  068%=      5-min Rain = 0
KPD1 101002Z 28010KT M04/M09 A3032 RMK A01 T10371087  RH  068%=      5-min Rain = 0
KPD1 101003Z 28010KT M04/M09 A3032 RMK A01 T10371087  RH  068%=      5-min Rain = 0
KPD1 101004Z 28010KT M04/M09 A3032 RMK A01 T10381087  RH  068%=      5-min Rain = 0
KPD1 101005Z 28010KT M04/M09 A3032 RMK A01 T10381088  RH  068%=      5-min Rain = 0
KPD1 101006Z 28010KT M04/M09 A3032 RMK A01 T10381087  RH  069%=      5-min Rain = 0
KPD1 101007Z 28010KT M04/M09 A3032 RMK A01 T10381087  RH  069%=      5-min Rain = 0
KPD1 101008Z 28010KT M04/M09 A3032 RMK A01 T10381087  RH  069%=      5-min Rain = 0
KPD1 101009Z 28011KT M04/M09 A3032 RMK A01 T10381087  RH  069%=      5-min Rain = 0
KPD1 101010Z 28010KT M04/M09 A3032 RMK A01 T10371086  RH  069%=      5-min Rain = 0
KPD1 101011Z 28009KT M04/M09 A3032 RMK A01 T10371086  RH  069%=      5-min Rain = 0
KPD1 101012Z 28010KT M04/M09 A3032 RMK A01 T10361086  RH  068%=      5-min Rain = 0
KPD1 101013Z 29009KT M04/M09 A3032 RMK A01 T10361086  RH  068%=      5-min Rain = 0
KPD1 101014Z 28011KT M04/M09 A3032 RMK A01 T10361086  RH  068%=      5-min Rain = 0
KPD1 101015Z 28010KT M04/M09 A3032 RMK A01 T10361086  RH  068%=      5-min Rain = 0
KPD1 101016Z 28010KT M04/M09 A3032 RMK A01 T10361086  RH  068%=      5-min Rain = 0
KPD1 101017Z 28009KT M04/M09 A3032 RMK A01 T10361086  RH  068%=      5-min Rain = 0
KPD1 101018Z 28011KT M04/M09 A3032 RMK A01 T10351085  RH  068%=      5-min Rain = 0
KPD1 101019Z 28010KT M03/M08 A3032 RMK A01 T10341084  RH  068%=      5-min Rain = 0
KPD1 101020Z 28010KT M03/M09 A3032 RMK A01 T10341085  RH  068%=      5-min Rain = 0
KPD1 101021Z 29009KT M03/M08 A3032 RMK A01 T10331084  RH  068%=      5-min Rain = 0
KPD1 101022Z 29010KT M03/M08 A3032 RMK A01 T10331084  RH  068%=      5-min Rain = 0
KPD1 101023Z 28011KT M03/M09 A3032 RMK A01 T10331085  RH  068%=      5-min Rain = 0
KPD1 101024Z 28009KT M03/M09 A3032 RMK A01 T10341085  RH  067%=      5-min Rain = 0
KPD1 101025Z 28010KT M03/M09 A3032 RMK A01 T10341085  RH  068%=      5-min Rain = 0
KPD1 101026Z 28010KT M03/M09 A3032 RMK A01 T10341085  RH  068%=      5-min Rain = 0
KPD1 101027Z 28010KT M03/M09 A3032 RMK A01 T10341085  RH  068%=      5-min Rain = 0
KPD1 101028Z 28010KT M03/M08 A3032 RMK A01 T10331084  RH  068%=      5-min Rain = 0
KPD1 101029Z 28010KT M03/M08 A3032 RMK A01 T10321084  RH  068%=      5-min Rain = 0
KPD1 101030Z 28010KT M03/M08 A3032 RMK A01 T10321084  RH  067%=      5-min Rain = 0
KPD1 101031Z 28010KT M03/M09 A3032 RMK A01 T10341086  RH  067%=      5-min Rain = 0
KPD1 101032Z 28010KT M04/M09 A3032 RMK A01 T10351086  RH  067%=      5-min Rain = 0
KPD1 101033Z 28008KT M04/M09 A3032 RMK A01 T10361087  RH  068%=      5-min Rain = 0
KPD1 101034Z 28010KT M04/M09 A3032 RMK A01 T10361087  RH  068%=      5-min Rain = 0
KPD1 101035Z 28010KT M04/M09 A3032 RMK A01 T10361087  RH  068%=      5-min Rain = 0
KPD1 101036Z 28010KT M04/M09 A3032 RMK A01 T10361086  RH  068%=      5-min Rain = 0
KPD1 101037Z 28010KT M04/M09 A3032 RMK A01 T10351086  RH  068%=      5-min Rain = 0
KPD1 101038Z 28010KT M04/M09 A3032 RMK A01 T10351086  RH  068%=      5-min Rain = 0
KPD1 101039Z 28010KT M03/M09 A3032 RMK A01 T10341086  RH  067%=      5-min Rain = 0
KPD1 101040Z 28010KT M03/M09 A3032 RMK A01 T10321085  RH  067%=      5-min Rain = 0
KPD1 101041Z 28011KT M03/M09 A3031 RMK A01 T10321086  RH  067%=      5-min Rain = 0
KPD1 101042Z 28010KT M03/M09 A3031 RMK A01 T10331087  RH  066%=      5-min Rain = 0
KPD1 101043Z 28010KT M03/M09 A3031 RMK A01 T10331087  RH  066%=      5-min Rain = 0
KPD1 101044Z 28009KT M03/M09 A3031 RMK A01 T10331087  RH  066%=      5-min Rain = 0
KPD1 101045Z 28010KT M03/M09 A3031 RMK A01 T10331088  RH  066%=      5-min Rain = 0
KPD1 101046Z 28011KT M03/M09 A3031 RMK A01 T10341088  RH  066%=      5-min Rain = 0
KPD1 101047Z 28010KT M03/M09 A3031 RMK A01 T10341088  RH  066%=      5-min Rain = 0
KPD1 101048Z 28010KT M03/M09 A3031 RMK A01 T10341088  RH  066%=      5-min Rain = 0
KPD1 101049Z 28010KT M03/M09 A3031 RMK A01 T10341088  RH  066%=      5-min Rain = 0
KPD1 101050Z 28010KT M03/M09 A3031 RMK A01 T10341088  RH  066%=      5-min Rain = 0
KPD1 101051Z 28010KT M03/M09 A3031 RMK A01 T10331088  RH  066%=      5-min Rain = 0
KPD1 101052Z 29010KT M03/M09 A3031 RMK A01 T10331087  RH  066%=      5-min Rain = 0
KPD1 101053Z 29009KT M03/M09 A3031 RMK A01 T10331088  RH  066%=      5-min Rain = 0
KPD1 101054Z 28011KT M03/M09 A3031 RMK A01 T10331088  RH  066%=      5-min Rain = 0
KPD1 101055Z 28011KT M03/M09 A3031 RMK A01 T10331088  RH  066%=      5-min Rain = 0
KPD1 101056Z 29010KT M03/M09 A3031 RMK A01 T10331088  RH  066%=      5-min Rain = 0
KPD1 101057Z 28009KT M03/M09 A3031 RMK A01 T10331088  RH  066%=      5-min Rain = 0
KPD1 101058Z 28010KT M03/M09 A3031 RMK A01 T10341089  RH  066%=      5-min Rain = 0
KPD1 101059Z 28011KT M03/M09 A3031 RMK A01 T10341089  RH  066%=      5-min Rain = 0
KPD1 101100Z 29011KT M03/M09 A3031 RMK A01 T10341089  RH  066%=      5-min Rain = 0
KPD1 101101Z 29011KT M03/M09 A3031 RMK A01 T10331088  RH  066%=      5-min Rain = 0
KPD1 101102Z 29010KT M03/M09 A3031 RMK A01 T10321088  RH  066%=      5-min Rain = 0
KPD1 101103Z 29010KT M03/M09 A3031 RMK A01 T10311087  RH  065%=      5-min Rain = 0
KPD1 101104Z 29009KT M03/M09 A3031 RMK A01 T10311088  RH  065%=      5-min Rain = 0
KPD1 101105Z 29008KT M03/M09 A3031 RMK A01 T10311088  RH  064%=      5-min Rain = 0
KPD1 101106Z 29010KT M03/M09 A3031 RMK A01 T10311089  RH  064%=      5-min Rain = 0
KPD1 101107Z 28010KT M03/M09 A3031 RMK A01 T10321090  RH  065%=      5-min Rain = 0
KPD1 101108Z 28009KT M03/M09 A3031 RMK A01 T10331090  RH  065%=      5-min Rain = 0
KPD1 101109Z 28010KT M03/M09 A3031 RMK A01 T10331089  RH  065%=      5-min Rain = 0
KPD1 101110Z 28011KT M03/M09 A3031 RMK A01 T10331089  RH  065%=      5-min Rain = 0
KPD1 101111Z 28010KT M03/M09 A3031 RMK A01 T10321089  RH  065%=      5-min Rain = 0
KPD1 101112Z 28010KT M03/M09 A3031 RMK A01 T10321089  RH  065%=      5-min Rain = 0
KPD1 101113Z 28010KT M03/M09 A3031 RMK A01 T10321089  RH  065%=      5-min Rain = 0
KPD1 101114Z 28010KT M03/M09 A3031 RMK A01 T10331090  RH  065%=      5-min Rain = 0
KPD1 101115Z 28010KT M03/M09 A3031 RMK A01 T10341091  RH  065%=      5-min Rain = 0
KPD1 101116Z 28010KT M04/M09 A3031 RMK A01 T10351090  RH  065%=      5-min Rain = 0
KPD1 101117Z 29011KT M04/M09 A3032 RMK A01 T10361091  RH  066%=      5-min Rain = 0
KPD1 101118Z 29011KT M04/M09 A3032 RMK A01 T10361090  RH  066%=      5-min Rain = 0
KPD1 101119Z 29009KT M04/M09 A3032 RMK A01 T10361090  RH  066%=      5-min Rain = 0
KPD1 101120Z 28011KT M04/M09 A3032 RMK A01 T10361090  RH  066%=      5-min Rain = 0
KPD1 101121Z 28010G15KT M04/M09 A3032 RMK A01 T10371090  RH  066%=      5-min Rain = 0
KPD1 101122Z 29010KT M04/M09 A3032 RMK A01 T10361090  RH  066%=      5-min Rain = 0
KPD1 101123Z 29010KT M04/M09 A3032 RMK A01 T10361090  RH  066%=      5-min Rain = 0
KPD1 101124Z 28011KT M04/M09 A3032 RMK A01 T10351089  RH  066%=      5-min Rain = 0
KPD1 101125Z 28011KT M04/M09 A3032 RMK A01 T10351090  RH  066%=      5-min Rain = 0
KPD1 101126Z 28011KT M04/M09 A3032 RMK A01 T10351090  RH  066%=      5-min Rain = 0
KPD1 101127Z 28010KT M04/M09 A3032 RMK A01 T10351090  RH  066%=      5-min Rain = 0
KPD1 101128Z 28010KT M04/M09 A3032 RMK A01 T10351090  RH  066%=      5-min Rain = 0
KPD1 101129Z 28010KT M04/M09 A3032 RMK A01 T10361090  RH  066%=      5-min Rain = 0
KPD1 101130Z 28011KT M04/M09 A3032 RMK A01 T10361090  RH  066%=      5-min Rain = 0
KPD1 101131Z 28011KT M04/M09 A3032 RMK A01 T10361090  RH  066%=      5-min Rain = 0
KPD1 101132Z 29010KT M04/M09 A3032 RMK A01 T10371090  RH  066%=      5-min Rain = 0
KPD1 101133Z 28011KT M04/M09 A3032 RMK A01 T10371090  RH  067%=      5-min Rain = 0
KPD1 101134Z 29010KT M04/M09 A3032 RMK A01 T10371090  RH  067%=      5-min Rain = 0
KPD1 101135Z 28010KT M04/M09 A3032 RMK A01 T10371090  RH  067%=      5-min Rain = 0
KPD1 101136Z 28010KT M04/M09 A3032 RMK A01 T10371090  RH  067%=      5-min Rain = 0
KPD1 101137Z 28010KT M04/M09 A3032 RMK A01 T10371090  RH  067%=      5-min Rain = 0
KPD1 101138Z 29010KT M04/M09 A3032 RMK A01 T10361090  RH  067%=      5-min Rain = 0
KPD1 101139Z 28010KT M04/M09 A3032 RMK A01 T10361089  RH  067%=      5-min Rain = 0
KPD1 101140Z 28010KT M04/M09 A3032 RMK A01 T10361089  RH  067%=      5-min Rain = 0
KPD1 101141Z 28011KT M04/M09 A3032 RMK A01 T10371090  RH  067%=      5-min Rain = 0
KPD1 101142Z 29011KT M04/M09 A3032 RMK A01 T10371090  RH  067%=      5-min Rain = 0
KPD1 101143Z 28010KT M04/M09 A3032 RMK A01 T10371090  RH  067%=      5-min Rain = 0
KPD1 101144Z 28011KT M04/M09 A3032 RMK A01 T10371090  RH  067%=      5-min Rain = 0
KPD1 101145Z 28010KT M04/M09 A3032 RMK A01 T10381090  RH  067%=      5-min Rain = 0
KPD1 101146Z 28011KT M04/M09 A3032 RMK A01 T10381090  RH  067%=      5-min Rain = 0
KPD1 101147Z 28010KT M04/M09 A3032 RMK A01 T10391090  RH  068%=      5-min Rain = 0
KPD1 101148Z 28010KT M04/M09 A3032 RMK A01 T10391090  RH  068%=      5-min Rain = 0
KPD1 101149Z 28012KT M04/M09 A3032 RMK A01 T10401089  RH  068%=      5-min Rain = 0
KPD1 101150Z 28011KT M04/M09 A3032 RMK A01 T10401089  RH  069%=      5-min Rain = 0
KPD1 101151Z 28011KT M04/M09 A3032 RMK A01 T10401089  RH  069%=      5-min Rain = 0
KPD1 101152Z 28011KT M04/M09 A3032 RMK A01 T10401088  RH  069%=      5-min Rain = 0
KPD1 101153Z 28011KT M04/M09 A3032 RMK A01 T10401087  RH  069%=      5-min Rain = 0
KPD1 101154Z 28012KT M04/M09 A3032 RMK A01 T10391087  RH  070%=      5-min Rain = 0
KPD1 101155Z 28012KT M04/M09 A3032 RMK A01 T10391086  RH  070%=      5-min Rain = 0
KPD1 101156Z 28012KT M04/M09 A3032 RMK A01 T10391086  RH  070%=      5-min Rain = 0
KPD1 101157Z 28012KT M04/M09 A3032 RMK A01 T10391086  RH  070%=      5-min Rain = 0
KPD1 101158Z 28012KT M04/M09 A3032 RMK A01 T10391086  RH  070%=      5-min Rain = 0
KPD1 101159Z 28012KT M04/M09 A3032 RMK A01 T10391086  RH  070%=      5-min Rain = 0
KPD1 101200Z 28012KT M04/M09 A3032 RMK A01 T10391085  RH  070%=      5-min Rain = 0
KPD1 101201Z 28012KT M04/M09 A3032 RMK A01 T10391085  RH  070%=      5-min Rain = 0
KPD1 101202Z 28011KT M04/M09 A3032 RMK A01 T10401086  RH  070%=      5-min Rain = 0
KPD1 101203Z 28012KT M04/M09 A3032 RMK A01 T10401086  RH  070%=      5-min Rain = 0
KPD1 101204Z 28011KT M04/M09 A3032 RMK A01 T10401086  RH  070%=      5-min Rain = 0
KPD1 101205Z 28012KT M04/M09 A3032 RMK A01 T10401085  RH  071%=      5-min Rain = 0
KPD1 101206Z 28011KT M04/M08 A3032 RMK A01 T10391084  RH  071%=      5-min Rain = 0
KPD1 101207Z 28011KT M04/M09 A3032 RMK A01 T10401085  RH  071%=      5-min Rain = 0
KPD1 101208Z 28011KT M04/M08 A3032 RMK A01 T10391084  RH  071%=      5-min Rain = 0
KPD1 101209Z 28011KT M04/M08 A3032 RMK A01 T10391084  RH  071%=      5-min Rain = 0
KPD1 101210Z 28011KT M04/M08 A3032 RMK A01 T10391083  RH  072%=      5-min Rain = 0
KPD1 101211Z 28011KT M04/M08 A3032 RMK A01 T10391083  RH  071%=      5-min Rain = 0
KPD1 101212Z 28012KT M04/M08 A3032 RMK A01 T10391083  RH  072%=      5-min Rain = 0
KPD1 101213Z 28012KT M04/M08 A3032 RMK A01 T10381082  RH  072%=      5-min Rain = 0
KPD1 101214Z 28011KT M04/M08 A3032 RMK A01 T10391083  RH  071%=      5-min Rain = 0
KPD1 101215Z 28011KT M04/M08 A3032 RMK A01 T10391083  RH  071%=      5-min Rain = 0
KPD1 101216Z 28012KT M04/M08 A3032 RMK A01 T10391083  RH  071%=      5-min Rain = 0
KPD1 101217Z 28012KT M04/M08 A3032 RMK A01 T10381082  RH  072%=      5-min Rain = 0
KPD1 101218Z 28012KT M04/M08 A3032 RMK A01 T10391083  RH  072%=      5-min Rain = 0
KPD1 101219Z 28012KT M04/M08 A3032 RMK A01 T10391083  RH  072%=      5-min Rain = 0
KPD1 101220Z 28012KT M04/M08 A3032 RMK A01 T10401084  RH  072%=      5-min Rain = 0
KPD1 101221Z 28011KT M04/M08 A3032 RMK A01 T10401083  RH  072%=      5-min Rain = 0
KPD1 101222Z 28012KT M04/M08 A3032 RMK A01 T10391083  RH  072%=      5-min Rain = 0
KPD1 101223Z 28011KT M04/M08 A3032 RMK A01 T10391083  RH  071%=      5-min Rain = 0
KPD1 101224Z 28011KT M04/M08 A3032 RMK A01 T10391083  RH  071%=      5-min Rain = 0
KPD1 101225Z 28011KT M04/M08 A3032 RMK A01 T10391084  RH  071%=      5-min Rain = 0
KPD1 101226Z 29011KT M04/M08 A3032 RMK A01 T10401084  RH  071%=      5-min Rain = 0
KPD1 101227Z 28010KT M04/M08 A3032 RMK A01 T10401084  RH  071%=      5-min Rain = 0
KPD1 101228Z 28011KT M04/M08 A3032 RMK A01 T10391083  RH  071%=      5-min Rain = 0
KPD1 101229Z 28010KT M04/M08 A3032 RMK A01 T10391083  RH  071%=      5-min Rain = 0
KPD1 101230Z 29011KT M04/M08 A3032 RMK A01 T10391084  RH  071%=      5-min Rain = 0
KPD1 101231Z 29011KT M04/M08 A3032 RMK A01 T10391083  RH  071%=      5-min Rain = 0
KPD1 101232Z 28009KT M04/M08 A3032 RMK A01 T10391083  RH  071%=      5-min Rain = 0
KPD1 101233Z 29009KT M04/M08 A3032 RMK A01 T10391083  RH  071%=      5-min Rain = 0
KPD1 101234Z 29011KT M04/M08 A3032 RMK A01 T10401084  RH  071%=      5-min Rain = 0
KPD1 101235Z 29010KT M04/M08 A3032 RMK A01 T10401084  RH  071%=      5-min Rain = 0
KPD1 101236Z 29010KT M04/M08 A3032 RMK A01 T10401084  RH  072%=      5-min Rain = 0
KPD1 101237Z 29011KT M04/M08 A3032 RMK A01 T10401084  RH  072%=      5-min Rain = 0
KPD1 101238Z 29011KT M04/M08 A3032 RMK A01 T10401083  RH  072%=      5-min Rain = 0
KPD1 101239Z 28011KT M04/M08 A3032 RMK A01 T10401084  RH  072%=      5-min Rain = 0
KPD1 101240Z 28012KT M04/M08 A3032 RMK A01 T10391083  RH  072%=      5-min Rain = 0
KPD1 101241Z 28012KT M04/M08 A3032 RMK A01 T10381082  RH  072%=      5-min Rain = 0
KPD1 101242Z 28011KT M04/M08 A3032 RMK A01 T10381082  RH  071%=      5-min Rain = 0
KPD1 101243Z 28012KT M04/M08 A3032 RMK A01 T10371082  RH  071%=      5-min Rain = 0
KPD1 101244Z 28011KT M04/M08 A3032 RMK A01 T10371082  RH  071%=      5-min Rain = 0
KPD1 101245Z 28010KT M04/M08 A3032 RMK A01 T10361082  RH  071%=      5-min Rain = 0
KPD1 101246Z 29011KT M04/M08 A3032 RMK A01 T10361082  RH  070%=      5-min Rain = 0
KPD1 101247Z 28011KT M04/M08 A3032 RMK A01 T10361083  RH  070%=      5-min Rain = 0
KPD1 101248Z 28011KT M04/M08 A3032 RMK A01 T10361082  RH  070%=      5-min Rain = 0
KPD1 101249Z 29010KT M04/M08 A3033 RMK A01 T10361083  RH  070%=      5-min Rain = 0
KPD1 101250Z 29010KT M04/M08 A3033 RMK A01 T10361083  RH  070%=      5-min Rain = 0
KPD1 101251Z 29011KT M04/M08 A3033 RMK A01 T10351083  RH  070%=      5-min Rain = 0
KPD1 101252Z 28009KT M03/M08 A3033 RMK A01 T10341082  RH  069%=      5-min Rain = 0
KPD1 101253Z 29010KT M04/M08 A3033 RMK A01 T10351083  RH  069%=      5-min Rain = 0
KPD1 101254Z 28009KT M04/M08 A3033 RMK A01 T10351083  RH  069%=      5-min Rain = 0
KPD1 101255Z 29010KT M04/M08 A3033 RMK A01 T10361084  RH  069%=      5-min Rain = 0
KPD1 101256Z 28010KT M04/M08 A3033 RMK A01 T10361084  RH  069%=      5-min Rain = 0
KPD1 101257Z 29009KT M04/M08 A3033 RMK A01 T10351083  RH  069%=      5-min Rain = 0
KPD1 101258Z 29009KT M04/M08 A3033 RMK A01 T10361084  RH  069%=      5-min Rain = 0
KPD1 101259Z 29010KT M03/M08 A3033 RMK A01 T10341083  RH  069%=      5-min Rain = 0
KPD1 101300Z 28009KT M03/M08 A3033 RMK A01 T10331083  RH  069%=      5-min Rain = 0
KPD1 101301Z 29009KT M03/M08 A3033 RMK A01 T10331083  RH  068%=      5-min Rain = 0
KPD1 101302Z 29009KT M03/M08 A3033 RMK A01 T10331083  RH  068%=      5-min Rain = 0
KPD1 101303Z 29008KT M03/M08 A3033 RMK A01 T10321082  RH  068%=      5-min Rain = 0
KPD1 101304Z 29009KT M03/M08 A3033 RMK A01 T10321083  RH  068%=      5-min Rain = 0
KPD1 101305Z 30008KT M03/M08 A3033 RMK A01 T10321083  RH  068%=      5-min Rain = 0
KPD1 101306Z 29009KT M03/M08 A3033 RMK A01 T10321083  RH  068%=      5-min Rain = 0
KPD1 101307Z 29009KT M03/M08 A3033 RMK A01 T10321083  RH  068%=      5-min Rain = 0
KPD1 101308Z 29009KT M03/M08 A3033 RMK A01 T10331084  RH  068%=      5-min Rain = 0
KPD1 101309Z 29009KT M03/M09 A3033 RMK A01 T10341085  RH  068%=      5-min Rain = 0
KPD1 101310Z 29009KT M03/M09 A3033 RMK A01 T10341085  RH  068%=      5-min Rain = 0
KPD1 101311Z 29009KT M03/M09 A3033 RMK A01 T10341085  RH  068%=      5-min Rain = 0
KPD1 101312Z 29009KT M03/M09 A3033 RMK A01 T10341085  RH  068%=      5-min Rain = 0
KPD1 101313Z 29009KT M03/M09 A3033 RMK A01 T10341085  RH  068%=      5-min Rain = 0
KPD1 101314Z 29008KT M03/M08 A3033 RMK A01 T10341084  RH  068%=      5-min Rain = 0
KPD1 101315Z 29007KT M03/M09 A3033 RMK A01 T10341085  RH  068%=      5-min Rain = 0
KPD1 101316Z 29007KT M03/M08 A3033 RMK A01 T10341084  RH  068%=      5-min Rain = 0
KPD1 101317Z 29008KT M03/M09 A3033 RMK A01 T10341085  RH  068%=      5-min Rain = 0
KPD1 101318Z 28007KT M04/M09 A3033 RMK A01 T10351085  RH  068%=      5-min Rain = 0
KPD1 101319Z 28008KT M04/M09 A3033 RMK A01 T10351085  RH  068%=      5-min Rain = 0
KPD1 101320Z 28007KT M04/M09 A3034 RMK A01 T10361086  RH  069%=      5-min Rain = 0
KPD1 101321Z 28007KT M04/M09 A3034 RMK A01 T10371086  RH  069%=      5-min Rain = 0
KPD1 101322Z 28009KT M04/M09 A3034 RMK A01 T10381086  RH  069%=      5-min Rain = 0
KPD1 101323Z 28007KT M04/M09 A3034 RMK A01 T10381086  RH  069%=      5-min Rain = 0
KPD1 101324Z 28007KT M04/M09 A3034 RMK A01 T10391086  RH  070%=      5-min Rain = 0
KPD1 101325Z 28008KT M04/M09 A3034 RMK A01 T10381085  RH  070%=      5-min Rain = 0
KPD1 101326Z 28008KT M04/M09 A3034 RMK A01 T10391086  RH  070%=      5-min Rain = 0
KPD1 101327Z 28008KT M04/M09 A3034 RMK A01 T10401085  RH  070%=      5-min Rain = 0
KPD1 101328Z 29007KT M04/M09 A3034 RMK A01 T10401085  RH  071%=      5-min Rain = 0
KPD1 101329Z 29008KT M04/M09 A3034 RMK A01 T10401085  RH  071%=      5-min Rain = 0
KPD1 101330Z 28009KT M04/M09 A3034 RMK A01 T10401085  RH  071%=      5-min Rain = 0
KPD1 101331Z 29008KT M04/M09 A3034 RMK A01 T10401085  RH  071%=      5-min Rain = 0
KPD1 101332Z 29008KT M04/M09 A3034 RMK A01 T10411085  RH  071%=      5-min Rain = 0
KPD1 101333Z 28007KT M04/M09 A3034 RMK A01 T10411085  RH  071%=      5-min Rain = 0
KPD1 101334Z 28008KT M04/M09 A3034 RMK A01 T10411086  RH  071%=      5-min Rain = 0
KPD1 101335Z 28008KT M04/M09 A3034 RMK A01 T10401085  RH  071%=      5-min Rain = 0
KPD1 101336Z 28008KT M04/M09 A3034 RMK A01 T10401085  RH  071%=      5-min Rain = 0
KPD1 101337Z 29009KT M04/M09 A3034 RMK A01 T10401085  RH  071%=      5-min Rain = 0
KPD1 101338Z 28009KT M04/M09 A3034 RMK A01 T10391085  RH  071%=      5-min Rain = 0
KPD1 101339Z 29008KT M04/M09 A3034 RMK A01 T10391085  RH  070%=      5-min Rain = 0
KPD1 101340Z 29009KT M04/M09 A3034 RMK A01 T10391085  RH  070%=      5-min Rain = 0
KPD1 101341Z 29010KT M04/M09 A3034 RMK A01 T10391085  RH  070%=      5-min Rain = 0
KPD1 101342Z 29009KT M04/M09 A3034 RMK A01 T10381085  RH  070%=      5-min Rain = 0
KPD1 101343Z 28009KT M04/M09 A3034 RMK A01 T10381085  RH  070%=      5-min Rain = 0
KPD1 101344Z 28009KT M04/M09 A3034 RMK A01 T10381085  RH  070%=      5-min Rain = 0
KPD1 101345Z 28009KT M04/M09 A3034 RMK A01 T10381085  RH  070%=      5-min Rain = 0
KPD1 101346Z 28010KT M04/M09 A3034 RMK A01 T10381086  RH  070%=      5-min Rain = 0
KPD1 101347Z 28009KT M04/M09 A3034 RMK A01 T10391086  RH  070%=      5-min Rain = 0
KPD1 101348Z 28010KT M04/M09 A3034 RMK A01 T10391086  RH  070%=      5-min Rain = 0
KPD1 101349Z 28010KT M04/M09 A3034 RMK A01 T10381085  RH  070%=      5-min Rain = 0
KPD1 101350Z 28009KT M04/M09 A3034 RMK A01 T10381085  RH  070%=      5-min Rain = 0
KPD1 101351Z 28010KT M04/M08 A3034 RMK A01 T10371084  RH  070%=      5-min Rain = 0
KPD1 101352Z 28008KT M04/M08 A3034 RMK A01 T10361084  RH  070%=      5-min Rain = 0
KPD1 101353Z 28009KT M04/M08 A3034 RMK A01 T10361084  RH  069%=      5-min Rain = 0
KPD1 101354Z 28008KT M04/M08 A3034 RMK A01 T10361084  RH  069%=      5-min Rain = 0
KPD1 101355Z 28009KT M04/M08 A3034 RMK A01 T10361084  RH  069%=      5-min Rain = 0
KPD1 101356Z 28008KT M04/M08 A3034 RMK A01 T10361084  RH  069%=      5-min Rain = 0
KPD1 101357Z 28008KT M04/M08 A3034 RMK A01 T10361084  RH  069%=      5-min Rain = 0
KPD1 101358Z 28009KT M04/M08 A3034 RMK A01 T10361084  RH  069%=      5-min Rain = 0
KPD1 101359Z 28009KT M04/M08 A3034 RMK A01 T10361084  RH  069%=      5-min Rain = 0
KPD1 101400Z 28009KT M04/M08 A3034 RMK A01 T10351083  RH  069%=      5-min Rain = 0
KPD1 101401Z 28008KT M04/M08 A3034 RMK A01 T10351084  RH  069%=      5-min Rain = 0
KPD1 101402Z 28008KT M04/M08 A3034 RMK A01 T10351083  RH  069%=      5-min Rain = 0
KPD1 101403Z 28009KT M03/M08 A3034 RMK A01 T10341083  RH  069%=      5-min Rain = 0
KPD1 101404Z 28009KT M03/M08 A3034 RMK A01 T10341082  RH  069%=      5-min Rain = 0
KPD1 101405Z 28008KT M03/M08 A3034 RMK A01 T10331082  RH  069%=      5-min Rain = 0
KPD1 101406Z 28009KT M03/M08 A3034 RMK A01 T10321082  RH  068%=      5-min Rain = 0
KPD1 101407Z 28009KT M03/M08 A3034 RMK A01 T10321082  RH  068%=      5-min Rain = 0
KPD1 101408Z 28009KT M03/M08 A3034 RMK A01 T10311082  RH  068%=      5-min Rain = 0
KPD1 101409Z 28008KT M03/M08 A3034 RMK A01 T10301082  RH  068%=      5-min Rain = 0
KPD1 101410Z 28010KT M03/M08 A3034 RMK A01 T10301082  RH  067%=      5-min Rain = 0
KPD1 101411Z 28009KT M03/M08 A3034 RMK A01 T10291081  RH  067%=      5-min Rain = 0
KPD1 101412Z 28009KT M03/M08 A3034 RMK A01 T10291081  RH  067%=      5-min Rain = 0
KPD1 101413Z 28008KT M03/M08 A3034 RMK A01 T10291081  RH  067%=      5-min Rain = 0
KPD1 101414Z 29009KT M03/M08 A3034 RMK A01 T10281081  RH  067%=      5-min Rain = 0
KPD1 101415Z 28010KT M03/M08 A3034 RMK A01 T10271081  RH  067%=      5-min Rain = 0
KPD1 101416Z 28009KT M03/M08 A3034 RMK A01 T10271081  RH  066%=      5-min Rain = 0
KPD1 101417Z 28008KT M03/M08 A3034 RMK A01 T10261081  RH  066%=      5-min Rain = 0
KPD1 101418Z 28008KT M03/M08 A3034 RMK A01 T10261081  RH  066%=      5-min Rain = 0
KPD1 101419Z 28009KT M03/M08 A3034 RMK A01 T10261081  RH  066%=      5-min Rain = 0
KPD1 101420Z 28009KT M03/M08 A3034 RMK A01 T10251080  RH  066%=      5-min Rain = 0
KPD1 101421Z 28009KT M02/M08 A3034 RMK A01 T10241080  RH  065%=      5-min Rain = 0
KPD1 101422Z 28009KT M02/M08 A3034 RMK A01 T10241080  RH  065%=      5-min Rain = 0
KPD1 101423Z 28009KT M02/M08 A3034 RMK A01 T10231079  RH  065%=      5-min Rain = 0
KPD1 101424Z 28010KT M02/M08 A3034 RMK A01 T10231080  RH  065%=      5-min Rain = 0
KPD1 101425Z 27009KT M02/M08 A3034 RMK A01 T10231080  RH  065%=      5-min Rain = 0
KPD1 101426Z 27008KT M02/M08 A3034 RMK A01 T10221079  RH  065%=      5-min Rain = 0
KPD1 101427Z 28009KT M02/M08 A3034 RMK A01 T10211079  RH  065%=      5-min Rain = 0
KPD1 101428Z 28009KT M02/M08 A3034 RMK A01 T10211079  RH  064%=      5-min Rain = 0
KPD1 101429Z 28009KT M02/M08 A3034 RMK A01 T10201079  RH  064%=      5-min Rain = 0
KPD1 101430Z 28008KT M02/M08 A3034 RMK A01 T10201079  RH  064%=      5-min Rain = 0
KPD1 101431Z 28007KT M02/M08 A3035 RMK A01 T10191078  RH  064%=      5-min Rain = 0
KPD1 101432Z 29007KT M02/M08 A3035 RMK A01 T10181077  RH  064%=      5-min Rain = 0
KPD1 101433Z 29005KT M02/M08 A3035 RMK A01 T10171077  RH  064%=      5-min Rain = 0
KPD1 101434Z 29006KT M02/M08 A3035 RMK A01 T10161077  RH  063%=      5-min Rain = 0
KPD1 101435Z 28006KT M02/M08 A3035 RMK A01 T10151077  RH  063%=      5-min Rain = 0
KPD1 101436Z 28005KT M02/M08 A3035 RMK A01 T10151076  RH  063%=      5-min Rain = 0
KPD1 101437Z 28006KT M01/M08 A3035 RMK A01 T10141076  RH  063%=      5-min Rain = 0
KPD1 101438Z 28005KT M01/M08 A3035 RMK A01 T10131075  RH  063%=      5-min Rain = 0
KPD1 101439Z 27006KT M01/M08 A3035 RMK A01 T10121075  RH  062%=      5-min Rain = 0
KPD1 101440Z 28008KT M01/M08 A3035 RMK A01 T10121075  RH  062%=      5-min Rain = 0
KPD1 101441Z 28006KT M01/M08 A3035 RMK A01 T10111075  RH  062%=      5-min Rain = 0
KPD1 101442Z 28009KT M01/M07 A3035 RMK A01 T10101074  RH  062%=      5-min Rain = 0
KPD1 101443Z 27006KT M01/M08 A3035 RMK A01 T10101075  RH  061%=      5-min Rain = 0
KPD1 101444Z 27008KT M01/M07 A3035 RMK A01 T10091074  RH  061%=      5-min Rain = 0
KPD1 101445Z 27007KT M01/M07 A3035 RMK A01 T10081074  RH  061%=      5-min Rain = 0
KPD1 101446Z 28007KT M01/M07 A3035 RMK A01 T10081074  RH  061%=      5-min Rain = 0
KPD1 101447Z 28007KT M01/M07 A3035 RMK A01 T10071073  RH  061%=      5-min Rain = 0
KPD1 101448Z 28008KT M01/M07 A3035 RMK A01 T10071073  RH  061%=      5-min Rain = 0
KPD1 101449Z 28005KT M01/M07 A3035 RMK A01 T10061073  RH  061%=      5-min Rain = 0
KPD1 101450Z 28006KT M01/M07 A3035 RMK A01 T10051072  RH  061%=      5-min Rain = 0
KPD1 101451Z 28005KT M00/M07 A3035 RMK A01 T10041072  RH  060%=      5-min Rain = 0
KPD1 101452Z 28007KT M00/M07 A3035 RMK A01 T10031071  RH  060%=      5-min Rain = 0
KPD1 101453Z 27005KT M00/M07 A3035 RMK A01 T10021071  RH  060%=      5-min Rain = 0
KPD1 101454Z 28005KT M00/M07 A3035 RMK A01 T10011071  RH  059%=      5-min Rain = 0
KPD1 101455Z 28006KT M00/M07 A3035 RMK A01 T10011071  RH  059%=      5-min Rain = 0
KPD1 101456Z 29006KT 00/07 A3035 RMK A01 T00-00-70  RH  059%=      5-min Rain = 0
KPD1 101457Z 29005KT 00/M07 A3035 RMK A01 T00011070  RH  059%=      5-min Rain = 0
KPD1 101458Z 30004KT 00/M07 A3035 RMK A01 T00021069  RH  059%=      5-min Rain = 0
KPD1 101459Z 29003KT 00/M07 A3035 RMK A01 T00031069  RH  058%=      5-min Rain = 0
KPD1 101500Z 30005KT 00/M07 A3035 RMK A01 T00041069  RH  058%=      5-min Rain = 0
KPD1 101501Z 30004KT 00/M07 A3035 RMK A01 T00041070  RH  058%=      5-min Rain = 0
KPD1 101502Z 30003KT 01/M07 A3035 RMK A01 T00051069  RH  058%=      5-min Rain = 0
KPD1 101503Z 30003KT 01/M07 A3035 RMK A01 T00061068  RH  058%=      5-min Rain = 0
KPD1 101504Z 32003KT 01/M07 A3035 RMK A01 T00071068  RH  058%=      5-min Rain = 0
KPD1 101505Z 32002KT 01/M07 A3035 RMK A01 T00081067  RH  057%=      5-min Rain = 0
KPD1 101506Z 33001KT 01/M07 A3035 RMK A01 T00091066  RH  057%=      5-min Rain = 0
KPD1 101507Z 29003KT 01/M07 A3035 RMK A01 T00091067  RH  057%=      5-min Rain = 0
KPD1 101508Z 30004KT 01/M07 A3035 RMK A01 T00111066  RH  057%=      5-min Rain = 0
KPD1 101509Z 32003KT 01/M07 A3035 RMK A01 T00101066  RH  056%=      5-min Rain = 0
KPD1 101510Z 32002KT 01/M07 A3035 RMK A01 T00111066  RH  056%=      5-min Rain = 0
KPD1 101511Z 31004KT 01/M07 A3035 RMK A01 T00121065  RH  056%=      5-min Rain = 0
KPD1 101512Z 32003KT 01/M07 A3035 RMK A01 T00131065  RH  056%=      5-min Rain = 0
KPD1 101513Z 31002KT 01/M07 A3036 RMK A01 T00141065  RH  056%=      5-min Rain = 0
KPD1 101514Z 33002KT 01/M07 A3036 RMK A01 T00141065  RH  056%=      5-min Rain = 0
KPD1 101515Z 30003KT 02/M06 A3036 RMK A01 T00151064  RH  056%=      5-min Rain = 0
KPD1 101516Z 31005KT 02/M06 A3036 RMK A01 T00171062  RH  056%=      5-min Rain = 0
KPD1 101517Z 30005KT 02/M06 A3036 RMK A01 T00181063  RH  055%=      5-min Rain = 0
KPD1 101518Z 31005KT 02/M07 A3036 RMK A01 T00171065  RH  054%=      5-min Rain = 0
KPD1 101519Z 31006KT 02/M07 A3036 RMK A01 T00171065  RH  054%=      5-min Rain = 0
KPD1 101520Z 30005KT 02/M06 A3036 RMK A01 T00181064  RH  054%=      5-min Rain = 0
KPD1 101521Z 30005KT 02/M07 A3036 RMK A01 T00171065  RH  055%=      5-min Rain = 0
KPD1 101522Z 32005KT 02/M06 A3036 RMK A01 T00181064  RH  055%=      5-min Rain = 0
KPD1 101523Z 30006KT 02/M06 A3036 RMK A01 T00191063  RH  055%=      5-min Rain = 0
KPD1 101524Z 31005KT 02/M06 A3036 RMK A01 T00191064  RH  054%=      5-min Rain = 0
KPD1 101525Z 30004KT 02/M06 A3036 RMK A01 T00181063  RH  055%=      5-min Rain = 0
KPD1 101526Z 31005KT 02/M06 A3036 RMK A01 T00191063  RH  055%=      5-min Rain = 0
KPD1 101527Z 30005KT 02/M06 A3036 RMK A01 T00191063  RH  055%=      5-min Rain = 0
KPD1 101528Z 31005KT 02/M06 A3036 RMK A01 T00191062  RH  055%=      5-min Rain = 0
KPD1 101529Z 30006KT 02/M06 A3036 RMK A01 T00191061  RH  055%=      5-min Rain = 0
KPD1 101530Z 31006KT 02/M06 A3036 RMK A01 T00191063  RH  055%=      5-min Rain = 0
KPD1 101531Z 29007KT 02/M06 A3036 RMK A01 T00181063  RH  055%=      5-min Rain = 0
KPD1 101532Z 30007KT 02/M06 A3036 RMK A01 T00171063  RH  055%=      5-min Rain = 0
KPD1 101533Z 30007KT 02/M06 A3036 RMK A01 T00161063  RH  056%=      5-min Rain = 0
KPD1 101534Z 30007KT 02/M06 A3036 RMK A01 T00161062  RH  056%=      5-min Rain = 0
KPD1 101535Z 30007KT 02/M06 A3036 RMK A01 T00171061  RH  056%=      5-min Rain = 0
KPD1 101536Z 30005KT 02/M06 A3036 RMK A01 T00171060  RH  056%=      5-min Rain = 0
KPD1 101537Z 30006KT 02/M06 A3036 RMK A01 T00191058  RH  057%=      5-min Rain = 0
KPD1 101538Z 30006KT 02/M06 A3036 RMK A01 T00211057  RH  056%=      5-min Rain = 0
KPD1 101539Z 30008KT 02/M06 A3037 RMK A01 T00231056  RH  056%=      5-min Rain = 0
KPD1 101540Z 30007KT 02/M06 A3037 RMK A01 T00231058  RH  055%=      5-min Rain = 0
KPD1 101541Z 31006KT 02/M06 A3037 RMK A01 T00241058  RH  055%=      5-min Rain = 0
KPD1 101542Z 30006KT 02/M06 A3037 RMK A01 T00241057  RH  055%=      5-min Rain = 0
KPD1 101543Z 29007KT 03/M06 A3037 RMK A01 T00251056  RH  055%=      5-min Rain = 0
KPD1 101544Z 30009KT 03/M06 A3037 RMK A01 T00261057  RH  054%=      5-min Rain = 0
KPD1 101545Z 30005KT 03/M06 A3037 RMK A01 T00261058  RH  054%=      5-min Rain = 0
KPD1 101546Z 29006KT 03/M06 A3037 RMK A01 T00261056  RH  054%=      5-min Rain = 0
KPD1 101547Z 31006KT 03/M06 A3037 RMK A01 T00271057  RH  054%=      5-min Rain = 0
KPD1 101548Z 30007KT 03/M06 A3037 RMK A01 T00271058  RH  054%=      5-min Rain = 0
KPD1 101549Z 29007KT 03/M06 A3037 RMK A01 T00271057  RH  054%=      5-min Rain = 0
KPD1 101550Z 29007KT 03/M06 A3037 RMK A01 T00281057  RH  054%=      5-min Rain = 0
KPD1 101551Z 30006KT 03/M06 A3037 RMK A01 T00271057  RH  054%=      5-min Rain = 0
KPD1 101552Z 30005KT 03/M06 A3037 RMK A01 T00281055  RH  054%=      5-min Rain = 0
KPD1 101553Z 29007KT 03/M06 A3037 RMK A01 T00301055  RH  054%=      5-min Rain = 0
KPD1 101554Z 30005KT 03/M05 A3037 RMK A01 T00311054  RH  054%=      5-min Rain = 0
KPD1 101555Z 31005KT 03/M05 A3037 RMK A01 T00321053  RH  054%=      5-min Rain = 0
KPD1 101556Z 30005KT 03/M05 A3037 RMK A01 T00321054  RH  053%=      5-min Rain = 0
KPD1 101557Z 31004KT 03/M05 A3037 RMK A01 T00331054  RH  053%=      5-min Rain = 0
KPD1 101558Z 32006KT 03/M05 A3037 RMK A01 T00341053  RH  053%=      5-min Rain = 0
KPD1 101559Z 31005KT 04/M05 A3037 RMK A01 T00351053  RH  053%=      5-min Rain = 0
KPD1 101600Z 29005KT 04/M05 A3037 RMK A01 T00361053  RH  052%=      5-min Rain = 0
KPD1 101601Z 31006KT 04/M05 A3037 RMK A01 T00361053  RH  052%=      5-min Rain = 0
KPD1 101602Z 31006KT 04/M05 A3037 RMK A01 T00361054  RH  052%=      5-min Rain = 0
KPD1 101603Z 31005KT 04/M05 A3037 RMK A01 T00351054  RH  052%=      5-min Rain = 0
KPD1 101604Z 30005KT 04/M05 A3037 RMK A01 T00351054  RH  052%=      5-min Rain = 0
KPD1 101605Z 30005KT 04/M05 A3037 RMK A01 T00351054  RH  052%=      5-min Rain = 0
KPD1 101606Z 30007KT 04/M05 A3037 RMK A01 T00371052  RH  052%=      5-min Rain = 0
KPD1 101607Z 30006KT 04/M05 A3037 RMK A01 T00381053  RH  052%=      5-min Rain = 0
KPD1 101608Z 30005KT 04/M05 A3037 RMK A01 T00381053  RH  051%=      5-min Rain = 0
KPD1 101609Z 30006KT 04/M05 A3037 RMK A01 T00391052  RH  052%=      5-min Rain = 0
KPD1 101610Z 33006KT 04/M05 A3037 RMK A01 T00391052  RH  051%=      5-min Rain = 0
KPD1 101611Z 31006KT 04/M05 A3037 RMK A01 T00411051  RH  051%=      5-min Rain = 0
KPD1 101612Z 33005KT 04/M05 A3037 RMK A01 T00421051  RH  051%=      5-min Rain = 0
KPD1 101613Z 33006KT 04/M05 A3037 RMK A01 T00431052  RH  050%=      5-min Rain = 0
KPD1 101614Z 33006KT 04/M05 A3037 RMK A01 T00431054  RH  049%=      5-min Rain = 0
KPD1 101615Z 33005KT 05/M05 A3037 RMK A01 T00451053  RH  049%=      5-min Rain = 0
KPD1 101616Z 33004KT 05/M05 A3037 RMK A01 T00481051  RH  049%=      5-min Rain = 0
KPD1 101617Z 34005KT 05/M05 A3037 RMK A01 T00491052  RH  048%=      5-min Rain = 0
KPD1 101618Z 34004KT 05/M05 A3037 RMK A01 T00501053  RH  047%=      5-min Rain = 0
KPD1 101619Z 35005KT 05/M05 A3037 RMK A01 T00501053  RH  047%=      5-min Rain = 0
KPD1 101620Z 03003KT 05/M05 A3037 RMK A01 T00501054  RH  047%=      5-min Rain = 0
KPD1 101621Z 02004KT 05/M06 A3037 RMK A01 T00481056  RH  047%=      5-min Rain = 0
KPD1 101622Z 03003KT 05/M06 A3037 RMK A01 T00451059  RH  047%=      5-min Rain = 0
KPD1 101623Z 04002KT 04/M06 A3037 RMK A01 T00431059  RH  047%=      5-min Rain = 0
KPD1 101624Z 03002KT 04/M06 A3037 RMK A01 T00421059  RH  048%=      5-min Rain = 0
KPD1 101625Z 03004KT 04/M06 A3037 RMK A01 T00431058  RH  048%=      5-min Rain = 0
KPD1 101626Z 02004KT 04/M06 A3037 RMK A01 T00441059  RH  047%=      5-min Rain = 0
KPD1 101627Z 03004KT 05/M06 A3037 RMK A01 T00451058  RH  047%=      5-min Rain = 0
KPD1 101628Z 01004KT 05/M06 A3037 RMK A01 T00461059  RH  047%=      5-min Rain = 0
KPD1 101629Z 01002KT 05/M06 A3037 RMK A01 T00451061  RH  046%=      5-min Rain = 0
KPD1 101630Z 01001KT 04/M06 A3037 RMK A01 T00441060  RH  047%=      5-min Rain = 0
KPD1 101631Z 34001KT 05/M06 A3037 RMK A01 T00461059  RH  047%=      5-min Rain = 0
KPD1 101632Z 36001KT 05/M06 A3037 RMK A01 T00471059  RH  046%=      5-min Rain = 0
KPD1 101633Z 35001KT 05/M06 A3037 RMK A01 T00481059  RH  046%=      5-min Rain = 0
KPD1 101634Z 35002KT 05/M06 A3037 RMK A01 T00501058  RH  046%=      5-min Rain = 0
KPD1 101635Z 34002KT 05/M06 A3037 RMK A01 T00521057  RH  045%=      5-min Rain = 0
KPD1 101636Z 33001KT 05/M06 A3037 RMK A01 T00531058  RH  045%=      5-min Rain = 0
KPD1 101637Z 30001KT 05/M06 A3037 RMK A01 T00541059  RH  044%=      5-min Rain = 0
KPD1 101638Z 30001KT 06/M06 A3037 RMK A01 T00551058  RH  044%=      5-min Rain = 0
KPD1 101639Z 28004KT 06/M06 A3037 RMK A01 T00561057  RH  044%=      5-min Rain = 0
KPD1 101640Z 30003KT 06/M06 A3037 RMK A01 T00581059  RH  043%=      5-min Rain = 0
KPD1 101641Z 31003KT 06/M06 A3037 RMK A01 T00581058  RH  043%=      5-min Rain = 0
KPD1 101642Z 29006KT 06/M06 A3037 RMK A01 T00611056  RH  043%=      5-min Rain = 0
KPD1 101643Z 30005KT 06/M06 A3037 RMK A01 T00621057  RH  042%=      5-min Rain = 0
KPD1 101644Z 31006KT 06/M06 A3037 RMK A01 T00631057  RH  042%=      5-min Rain = 0
KPD1 101645Z 32003KT 07/M06 A3037 RMK A01 T00651056  RH  042%=      5-min Rain = 0
KPD1 101646Z 32004KT 07/M06 A3037 RMK A01 T00671055  RH  041%=      5-min Rain = 0
KPD1 101647Z 31003KT 07/M06 A3037 RMK A01 T00681057  RH  041%=      5-min Rain = 0
KPD1 101648Z 33004KT 07/M06 A3037 RMK A01 T00681057  RH  041%=      5-min Rain = 0
KPD1 101649Z 33005KT 07/M06 A3037 RMK A01 T00681058  RH  040%=      5-min Rain = 0
KPD1 101650Z 31005KT 07/M06 A3037 RMK A01 T00691058  RH  040%=      5-min Rain = 0
KPD1 101651Z 30004KT 07/M06 A3037 RMK A01 T00681059  RH  040%=      5-min Rain = 0
KPD1 101652Z 31003KT 07/M06 A3037 RMK A01 T00681057  RH  040%=      5-min Rain = 0
KPD1 101653Z 33005KT 07/M06 A3037 RMK A01 T00701056  RH  040%=      5-min Rain = 0
KPD1 101654Z 28004KT 07/M06 A3037 RMK A01 T00701058  RH  040%=      5-min Rain = 0
KPD1 101655Z 32006KT 07/M06 A3037 RMK A01 T00711057  RH  040%=      5-min Rain = 0
KPD1 101656Z 32005KT 07/M06 A3037 RMK A01 T00711057  RH  040%=      5-min Rain = 0
KPD1 101657Z 32004KT 07/M06 A3037 RMK A01 T00701058  RH  040%=      5-min Rain = 0
KPD1 101658Z 32005KT 07/M06 A3037 RMK A01 T00691058  RH  040%=      5-min Rain = 0
KPD1 101659Z 31005KT 07/M06 A3037 RMK A01 T00691057  RH  040%=      5-min Rain = 0
KPD1 101700Z 30005KT 07/M06 A3037 RMK A01 T00681058  RH  040%=      5-min Rain = 0
KPD1 101701Z 29003KT 07/M06 A3037 RMK A01 T00691058  RH  040%=      5-min Rain = 0
KPD1 101702Z 31005KT 07/M06 A3037 RMK A01 T00691057  RH  040%=      5-min Rain = 0
KPD1 101703Z 31004KT 07/M06 A3037 RMK A01 T00711057  RH  040%=      5-min Rain = 0
KPD1 101704Z 32002KT 07/M06 A3037 RMK A01 T00711057  RH  040%=      5-min Rain = 0
KPD1 101705Z 31004KT 07/M06 A3037 RMK A01 T00721056  RH  040%=      5-min Rain = 0
KPD1 101706Z 35002KT 07/M06 A3037 RMK A01 T00731056  RH  039%=      5-min Rain = 0
KPD1 101707Z 35004KT 08/M06 A3037 RMK A01 T00751056  RH  039%=      5-min Rain = 0
KPD1 101708Z 31004KT 08/M06 A3037 RMK A01 T00761056  RH  039%=      5-min Rain = 0
KPD1 101709Z 33003KT 08/M06 A3037 RMK A01 T00771056  RH  038%=      5-min Rain = 0
KPD1 101710Z 34004KT 08/M06 A3037 RMK A01 T00781056  RH  038%=      5-min Rain = 0
KPD1 101711Z 31002KT 08/M06 A3036 RMK A01 T00781056  RH  038%=      5-min Rain = 0
KPD1 101712Z 30004KT 08/M05 A3036 RMK A01 T00791054  RH  038%=      5-min Rain = 0
KPD1 101713Z 32005KT 08/M06 A3036 RMK A01 T00791057  RH  038%=      5-min Rain = 0
KPD1 101714Z 01003KT 08/M06 A3036 RMK A01 T00771057  RH  038%=      5-min Rain = 0
KPD1 101715Z 34003KT 08/M06 A3036 RMK A01 T00761057  RH  038%=      5-min Rain = 0
KPD1 101716Z 31002KT 08/M06 A3036 RMK A01 T00751056  RH  039%=      5-min Rain = 0
KPD1 101717Z 30003KT 08/M06 A3036 RMK A01 T00771055  RH  039%=      5-min Rain = 0
KPD1 101718Z 26002KT 08/M05 A3036 RMK A01 T00791054  RH  038%=      5-min Rain = 0
KPD1 101719Z 32004KT 08/M05 A3036 RMK A01 T00811053  RH  038%=      5-min Rain = 0
KPD1 101720Z 32004KT 08/M05 A3036 RMK A01 T00831054  RH  038%=      5-min Rain = 0
KPD1 101721Z 33003KT 08/M05 A3036 RMK A01 T00821054  RH  038%=      5-min Rain = 0
KPD1 101722Z 31005KT 08/M05 A3036 RMK A01 T00831052  RH  038%=      5-min Rain = 0
KPD1 101723Z 31005KT 08/M05 A3036 RMK A01 T00841053  RH  037%=      5-min Rain = 0
KPD1 101724Z 32005KT 08/M05 A3036 RMK A01 T00841053  RH  037%=      5-min Rain = 0
KPD1 101725Z 31005KT 09/M05 A3036 RMK A01 T00851052  RH  038%=      5-min Rain = 0
KPD1 101726Z 30004KT 08/M05 A3035 RMK A01 T00841053  RH  038%=      5-min Rain = 0
KPD1 101727Z 33002KT 08/M05 A3035 RMK A01 T00841053  RH  038%=      5-min Rain = 0
KPD1 101728Z 33002KT 09/M05 A3035 RMK A01 T00851053  RH  037%=      5-min Rain = 0
KPD1 101729Z 30004KT 09/M05 A3035 RMK A01 T00851053  RH  037%=      5-min Rain = 0
KPD1 101730Z 31002KT 08/M05 A3035 RMK A01 T00841054  RH  037%=      5-min Rain = 0
KPD1 101731Z 33001KT 08/M05 A3035 RMK A01 T00841054  RH  037%=      5-min Rain = 0
KPD1 101732Z 25002KT 08/M05 A3035 RMK A01 T00841053  RH  037%=      5-min Rain = 0
KPD1 101733Z 23002KT 08/M05 A3035 RMK A01 T00841054  RH  037%=      5-min Rain = 0
KPD1 101734Z 29000KT 09/M05 A3035 RMK A01 T00851054  RH  037%=      5-min Rain = 0
KPD1 101735Z 33004KT 09/M05 A3035 RMK A01 T00881052  RH  037%=      5-min Rain = 0
KPD1 101736Z 33002KT 09/M05 A3035 RMK A01 T00881052  RH  037%=      5-min Rain = 0
KPD1 101737Z 01000KT 09/M05 A3035 RMK A01 T00871053  RH  037%=      5-min Rain = 0
KPD1 101738Z 28001KT 09/M05 A3035 RMK A01 T00881051  RH  037%=      5-min Rain = 0
KPD1 101739Z 31002KT 09/M05 A3035 RMK A01 T00891051  RH  037%=      5-min Rain = 0
KPD1 101740Z 29002KT 09/M05 A3035 RMK A01 T00891052  RH  037%=      5-min Rain = 0
KPD1 101741Z 28004KT 09/M05 A3035 RMK A01 T00911049  RH  037%=      5-min Rain = 0
KPD1 101742Z 26005KT 09/M05 A3034 RMK A01 T00921050  RH  036%=      5-min Rain = 0
KPD1 101743Z 25002KT 09/M05 A3035 RMK A01 T00931048  RH  036%=      5-min Rain = 0
KPD1 101744Z 24001KT 09/M05 A3034 RMK A01 T00941049  RH  036%=      5-min Rain = 0
KPD1 101745Z 26002KT 09/M05 A3034 RMK A01 T00941049  RH  036%=      5-min Rain = 0
KPD1 101746Z 26002KT 09/M05 A3034 RMK A01 T00941050  RH  036%=      5-min Rain = 0
KPD1 101747Z 28001KT 09/M05 A3034 RMK A01 T00931051  RH  036%=      5-min Rain = 0
KPD1 101748Z 00000KT 09/M05 A3034 RMK A01 T00921051  RH  036%=      5-min Rain = 0
KPD1 101749Z 26001KT 09/M05 A3034 RMK A01 T00931049  RH  036%=      5-min Rain = 0
KPD1 101750Z 29003KT 10/M05 A3034 RMK A01 T00971045  RH  037%=      5-min Rain = 0
KPD1 101751Z 24002KT 10/M05 A3034 RMK A01 T00991046  RH  036%=      5-min Rain = 0
KPD1 101752Z 26001KT 10/M05 A3034 RMK A01 T00991047  RH  035%=      5-min Rain = 0
KPD1 101753Z 31004KT 10/M05 A3034 RMK A01 T00981048  RH  035%=      5-min Rain = 0
KPD1 101754Z 28003KT 10/M05 A3034 RMK A01 T00981045  RH  036%=      5-min Rain = 0
KPD1 101755Z 28003KT 10/M04 A3033 RMK A01 T01021042  RH  036%=      5-min Rain = 0
KPD1 101756Z 27002G7KT 10/M04 A3033 RMK A01 T01041044  RH  035%=      5-min Rain = 0
KPD1 101757Z 27007KT 10/M05 A3033 RMK A01 T01031045  RH  035%=      5-min Rain = 0
KPD1 101758Z 31005KT 10/M04 A3033 RMK A01 T01041043  RH  035%=      5-min Rain = 0
KPD1 101759Z 35003KT 10/M04 A3033 RMK A01 T01041044  RH  035%=      5-min Rain = 0
KPD1 101800Z 30003KT 10/M04 A3033 RMK A01 T01041044  RH  035%=      5-min Rain = 0
KPD1 101801Z 29007KT 10/M04 A3033 RMK A01 T01041044  RH  035%=      5-min Rain = 0
KPD1 101802Z 30006KT 10/M05 A3033 RMK A01 T01031045  RH  035%=      5-min Rain = 0
KPD1 101803Z 30005KT 10/M05 A3033 RMK A01 T01011046  RH  035%=      5-min Rain = 0
KPD1 101804Z 31004KT 10/M05 A3033 RMK A01 T01001045  RH  036%=      5-min Rain = 0
KPD1 101805Z 29002KT 10/M04 A3033 RMK A01 T01011043  RH  036%=      5-min Rain = 0
KPD1 101806Z 28004KT 10/M04 A3033 RMK A01 T01021043  RH  036%=      5-min Rain = 0
KPD1 101807Z 25002KT 10/M04 A3033 RMK A01 T01021044  RH  036%=      5-min Rain = 0
KPD1 101808Z 30000KT 10/M05 A3033 RMK A01 T01001046  RH  035%=      5-min Rain = 0
KPD1 101809Z 31000KT 10/M05 A3033 RMK A01 T01001045  RH  036%=      5-min Rain = 0
KPD1 101810Z 00000KT 10/M04 A3033 RMK A01 T01021041  RH  036%=      5-min Rain = 0
KPD1 101811Z 32002KT 11/M04 A3033 RMK A01 T01051040  RH  036%=      5-min Rain = 0
KPD1 101812Z 33002KT 11/M04 A3032 RMK A01 T01061042  RH  035%=      5-min Rain = 0
KPD1 101813Z 31004KT 11/M04 A3032 RMK A01 T01071040  RH  035%=      5-min Rain = 0
KPD1 101814Z 31005KT 11/M04 A3032 RMK A01 T01081041  RH  035%=      5-min Rain = 0
KPD1 101815Z 32005KT 11/M04 A3032 RMK A01 T01061042  RH  035%=      5-min Rain = 0
KPD1 101816Z 31005KT 11/M04 A3032 RMK A01 T01061041  RH  035%=      5-min Rain = 0
KPD1 101817Z 29007KT 11/M04 A3032 RMK A01 T01061042  RH  035%=      5-min Rain = 0
KPD1 101818Z 26005KT 11/M04 A3032 RMK A01 T01051042  RH  035%=      5-min Rain = 0
KPD1 101819Z 31004KT 11/M04 A3032 RMK A01 T01061040  RH  036%=      5-min Rain = 0
KPD1 101820Z 33004KT 11/M04 A3032 RMK A01 T01081039  RH  035%=      5-min Rain = 0
KPD1 101821Z 32004KT 11/M04 A3032 RMK A01 T01071041  RH  035%=      5-min Rain = 0
KPD1 101822Z 28005KT 11/M04 A3032 RMK A01 T01061041  RH  035%=      5-min Rain = 0
KPD1 101823Z 28004KT 11/M04 A3032 RMK A01 T01061042  RH  035%=      5-min Rain = 0
KPD1 101824Z 32002KT 11/M04 A3032 RMK A01 T01051042  RH  035%=      5-min Rain = 0
KPD1 101825Z 17001KT 11/M04 A3032 RMK A01 T01051041  RH  036%=      5-min Rain = 0
KPD1 101826Z 17001KT 11/M04 A3031 RMK A01 T01051042  RH  035%=      5-min Rain = 0
KPD1 101827Z 33001KT 10/M04 A3031 RMK A01 T01041040  RH  036%=      5-min Rain = 0
KPD1 101828Z 34003KT 11/M04 A3031 RMK A01 T01061040  RH  036%=      5-min Rain = 0
KPD1 101829Z 30001KT 11/M04 A3031 RMK A01 T01071040  RH  035%=      5-min Rain = 0
KPD1 101830Z 26005KT 11/M04 A3031 RMK A01 T01081039  RH  035%=      5-min Rain = 0
KPD1 101831Z 26005KT 11/M04 A3031 RMK A01 T01111037  RH  035%=      5-min Rain = 0
KPD1 101832Z 26004KT 11/M04 A3031 RMK A01 T01111038  RH  035%=      5-min Rain = 0
KPD1 101833Z 25005KT 11/M04 A3031 RMK A01 T01101040  RH  035%=      5-min Rain = 0
KPD1 101834Z 25004KT 11/M04 A3031 RMK A01 T01091040  RH  035%=      5-min Rain = 0
KPD1 101835Z 24003KT 11/M04 A3031 RMK A01 T01071041  RH  035%=      5-min Rain = 0
KPD1 101836Z 26002KT 11/M04 A3031 RMK A01 T01061040  RH  035%=      5-min Rain = 0
KPD1 101837Z 30000KT 11/M04 A3031 RMK A01 T01071040  RH  035%=      5-min Rain = 0
KPD1 101838Z 30001KT 11/M04 A3031 RMK A01 T01081037  RH  036%=      5-min Rain = 0
KPD1 101839Z 29005KT 11/M04 A3031 RMK A01 T01111036  RH  035%=      5-min Rain = 0
KPD1 101840Z 31004KT 11/M04 A3031 RMK A01 T01121037  RH  035%=      5-min Rain = 0
KPD1 101841Z 29005KT 11/M04 A3031 RMK A01 T01111038  RH  035%=      5-min Rain = 0
KPD1 101842Z 26004KT 11/M04 A303 RMK A01 T01121037  RH  035%=      5-min Rain = 0
KPD1 101843Z 25008KT 11/M04 A303 RMK A01 T01141035  RH  035%=      5-min Rain = 0
KPD1 101844Z 26006KT 12/M04 A303 RMK A01 T01151037  RH  034%=      5-min Rain = 0
KPD1 101845Z 25004KT 12/M04 A303 RMK A01 T01151038  RH  034%=      5-min Rain = 0
KPD1 101846Z 24005KT 11/M04 A303 RMK A01 T01141039  RH  034%=      5-min Rain = 0
KPD1 101847Z 25003KT 12/M04 A303 RMK A01 T01161037  RH  034%=      5-min Rain = 0
KPD1 101848Z 22005KT 12/M04 A303 RMK A01 T01161040  RH  033%=      5-min Rain = 0
KPD1 101849Z 22003KT 12/M04 A303 RMK A01 T01151040  RH  034%=      5-min Rain = 0
KPD1 101850Z 27003KT 11/M04 A303 RMK A01 T01141039  RH  034%=      5-min Rain = 0
KPD1 101851Z 23002KT 12/M04 A303 RMK A01 T01151037  RH  034%=      5-min Rain = 0
KPD1 101852Z 22002KT 12/M04 A303 RMK A01 T01181035  RH  034%=      5-min Rain = 0
KPD1 101853Z 21005KT 12/M03 A303 RMK A01 T01221032  RH  034%=      5-min Rain = 0
KPD1 101854Z 20004KT 12/M04 A303 RMK A01 T01241035  RH  033%=      5-min Rain = 0
KPD1 101855Z 25005KT 12/M04 A303 RMK A01 T01221037  RH  033%=      5-min Rain = 0
KPD1 101856Z 30004KT 12/M04 A303 RMK A01 T01231037  RH  033%=      5-min Rain = 0
KPD1 101857Z 28005KT 12/M04 A303 RMK A01 T01221038  RH  032%=      5-min Rain = 0
KPD1 101858Z 29007KT 12/M04 A303 RMK A01 T01231039  RH  032%=      5-min Rain = 0
KPD1 101859Z 29006KT 12/M04 A303 RMK A01 T01231040  RH  032%=      5-min Rain = 0
KPD1 101900Z 31004KT 12/M04 A303 RMK A01 T01201042  RH  032%=      5-min Rain = 0
KPD1 101901Z 29006KT 12/M04 A3029 RMK A01 T01191041  RH  033%=      5-min Rain = 0
KPD1 101902Z 28005KT 12/M04 A3029 RMK A01 T01171040  RH  033%=      5-min Rain = 0
KPD1 101903Z 29004KT 12/M04 A3029 RMK A01 T01191038  RH  033%=      5-min Rain = 0
KPD1 101904Z 30004KT 12/M04 A3029 RMK A01 T01201038  RH  033%=      5-min Rain = 0
KPD1 101905Z 31006KT 12/M04 A3029 RMK A01 T01201039  RH  033%=      5-min Rain = 0
KPD1 101906Z 31006KT 12/M04 A3029 RMK A01 T01201040  RH  033%=      5-min Rain = 0
KPD1 101907Z 21004G12KT 12/M04 A3029 RMK A01 T01201039  RH  033%=      5-min Rain = 0
KPD1 101908Z 26003KT 12/M04 A3029 RMK A01 T01231036  RH  033%=      5-min Rain = 0
KPD1 101909Z 27006KT 12/M04 A3029 RMK A01 T01241038  RH  032%=      5-min Rain = 0
KPD1 101910Z 29004KT 12/M04 A3029 RMK A01 T01241039  RH  032%=      5-min Rain = 0
KPD1 101911Z 31004KT 12/M04 A3029 RMK A01 T01231041  RH  032%=      5-min Rain = 0
KPD1 101912Z 30002KT 12/M04 A3029 RMK A01 T01211043  RH  032%=      5-min Rain = 0
KPD1 101913Z 30002KT 12/M04 A3029 RMK A01 T01211040  RH  032%=      5-min Rain = 0
KPD1 101914Z 24005KT 12/M04 A3029 RMK A01 T01231039  RH  032%=      5-min Rain = 0
KPD1 101915Z 26004KT 12/M04 A3029 RMK A01 T01231039  RH  032%=      5-min Rain = 0
KPD1 101916Z 23005KT 12/M04 A3029 RMK A01 T01241038  RH  032%=      5-min Rain = 0
KPD1 101917Z 24005KT 12/M04 A3029 RMK A01 T01241038  RH  032%=      5-min Rain = 0
KPD1 101918Z 26006KT 13/M04 A3029 RMK A01 T01271036  RH  032%=      5-min Rain = 0
KPD1 101919Z 27005KT 13/M04 A3029 RMK A01 T01271038  RH  031%=      5-min Rain = 0
KPD1 101920Z 27001KT 13/M04 A3029 RMK A01 T01251040  RH  031%=      5-min Rain = 0
KPD1 101921Z 21001KT 12/M04 A3028 RMK A01 T01241040  RH  032%=      5-min Rain = 0
KPD1 101922Z 20002KT 13/M04 A3028 RMK A01 T01251039  RH  032%=      5-min Rain = 0
KPD1 101923Z 26003KT 13/M04 A3028 RMK A01 T01251038  RH  032%=      5-min Rain = 0
KPD1 101924Z 28003KT 13/M04 A3028 RMK A01 T01261038  RH  032%=      5-min Rain = 0
KPD1 101925Z 25002KT 13/M04 A3028 RMK A01 T01251038  RH  032%=      5-min Rain = 0
KPD1 101926Z 22004KT 13/M04 A3028 RMK A01 T01261037  RH  032%=      5-min Rain = 0
KPD1 101927Z 20004KT 13/M04 A3028 RMK A01 T01281036  RH  032%=      5-min Rain = 0
KPD1 101928Z 21005KT 13/M04 A3028 RMK A01 T01301040  RH  030%=      5-min Rain = 0
KPD1 101929Z 22006KT 13/M04 A3028 RMK A01 T01321042  RH  030%=      5-min Rain = 0
KPD1 101930Z 22006KT 13/M04 A3028 RMK A01 T01331044  RH  029%=      5-min Rain = 0
KPD1 101931Z 21006KT 13/M05 A3028 RMK A01 T01341049  RH  028%=      5-min Rain = 0
KPD1 101932Z 20007KT 13/M05 A3028 RMK A01 T01341051  RH  027%=      5-min Rain = 0
KPD1 101933Z 21004KT 13/M05 A3028 RMK A01 T01331049  RH  028%=      5-min Rain = 0
KPD1 101934Z 21006KT 13/M05 A3028 RMK A01 T01331049  RH  028%=      5-min Rain = 0
KPD1 101935Z 21005KT 13/M05 A3028 RMK A01 T01321049  RH  028%=      5-min Rain = 0
KPD1 101936Z 25004KT 13/M05 A3028 RMK A01 T01311048  RH  028%=      5-min Rain = 0
KPD1 101937Z 25004KT 13/M05 A3028 RMK A01 T01311048  RH  028%=      5-min Rain = 0
KPD1 101938Z 24003KT 13/M05 A3028 RMK A01 T01291048  RH  029%=      5-min Rain = 0
KPD1 101939Z 23004KT 13/M05 A3028 RMK A01 T01291045  RH  029%=      5-min Rain = 0
KPD1 101940Z 22006KT 13/M04 A3028 RMK A01 T01311042  RH  030%=      5-min Rain = 0
KPD1 101941Z 21005KT 13/M04 A3028 RMK A01 T01321043  RH  029%=      5-min Rain = 0
KPD1 101942Z 20003KT 13/M04 A3028 RMK A01 T01321043  RH  029%=      5-min Rain = 0
KPD1 101943Z 21002KT 13/M04 A3027 RMK A01 T01311043  RH  029%=      5-min Rain = 0
KPD1 101944Z 21004KT 13/M04 A3027 RMK A01 T01321043  RH  029%=      5-min Rain = 0
KPD1 101945Z 22004KT 13/M04 A3027 RMK A01 T01331042  RH  029%=      5-min Rain = 0
KPD1 101946Z 21004KT 14/M04 A3027 RMK A01 T01351041  RH  029%=      5-min Rain = 0
KPD1 101947Z 19003KT 14/M04 A3027 RMK A01 T01361041  RH  029%=      5-min Rain = 0
KPD1 101948Z 23003KT 14/M04 A3027 RMK A01 T01391040  RH  029%=      5-min Rain = 0
KPD1 101949Z 25004KT 14/M04 A3027 RMK A01 T01411041  RH  028%=      5-min Rain = 0
KPD1 101950Z 21006KT 14/M04 A3027 RMK A01 T01411044  RH  027%=      5-min Rain = 0
KPD1 101951Z 21007KT 14/M05 A3027 RMK A01 T01401052  RH  026%=      5-min Rain = 0
KPD1 101952Z 22007KT 14/M05 A3027 RMK A01 T01391054  RH  026%=      5-min Rain = 0
KPD1 101953Z 22008KT 14/M05 A3027 RMK A01 T01371053  RH  026%=      5-min Rain = 0
KPD1 101954Z 24006KT 14/M05 A3027 RMK A01 T01371051  RH  027%=      5-min Rain = 0
KPD1 101955Z 25006KT 14/M05 A3027 RMK A01 T01361052  RH  027%=      5-min Rain = 0
KPD1 101956Z 27004KT 14/M05 A3027 RMK A01 T01361050  RH  027%=      5-min Rain = 0
KPD1 101957Z 26003KT 14/M05 A3027 RMK A01 T01351051  RH  027%=      5-min Rain = 0
KPD1 101958Z 23007KT 13/M05 A3027 RMK A01 T01331053  RH  027%=      5-min Rain = 0
KPD1 101959Z 23007KT 13/M05 A3027 RMK A01 T01341053  RH  027%=      5-min Rain = 0
KPD1 102000Z 21006KT 14/M06 A3027 RMK A01 T01351056  RH  026%=      5-min Rain = 0
KPD1 102001Z 25005KT 14/M06 A3027 RMK A01 T01351056  RH  026%=      5-min Rain = 0
KPD1 102002Z 27007KT 14/M06 A3027 RMK A01 T01361055  RH  026%=      5-min Rain = 0
KPD1 102003Z 29006KT 14/M05 A3027 RMK A01 T01371054  RH  026%=      5-min Rain = 0
KPD1 102004Z 28004KT 14/M06 A3027 RMK A01 T01351056  RH  026%=      5-min Rain = 0
KPD1 102005Z 27003KT 13/M06 A3027 RMK A01 T01341057  RH  026%=      5-min Rain = 0
KPD1 102006Z 31002KT 13/M06 A3027 RMK A01 T01321060  RH  026%=      5-min Rain = 0
KPD1 102007Z 27003KT 13/M06 A3026 RMK A01 T01331055  RH  027%=      5-min Rain = 0
KPD1 102008Z 33001KT 14/M05 A3026 RMK A01 T01361051  RH  027%=      5-min Rain = 0
KPD1 102009Z 30003KT 14/M05 A3026 RMK A01 T01381048  RH  027%=      5-min Rain = 0
KPD1 102010Z 31004KT 14/M05 A3026 RMK A01 T01391049  RH  027%=      5-min Rain = 0
KPD1 102011Z 26005KT 14/M05 A3026 RMK A01 T01391053  RH  026%=      5-min Rain = 0
KPD1 102012Z 28007KT 14/M06 A3026 RMK A01 T01391060  RH  025%=      5-min Rain = 0
KPD1 102013Z 28006KT 14/M06 A3026 RMK A01 T01381062  RH  024%=      5-min Rain = 0
KPD1 102014Z 29006KT 14/M06 A3026 RMK A01 T01381061  RH  025%=      5-min Rain = 0
KPD1 102015Z 28007KT 14/M06 A3026 RMK A01 T01381061  RH  025%=      5-min Rain = 0
KPD1 102016Z 29007KT 14/M06 A3026 RMK A01 T01371063  RH  024%=      5-min Rain = 0
KPD1 102017Z 31005KT 14/M06 A3026 RMK A01 T01361060  RH  025%=      5-min Rain = 0
KPD1 102018Z 30004KT 14/M06 A3026 RMK A01 T01351058  RH  026%=      5-min Rain = 0
KPD1 102019Z 29006KT 14/M06 A3026 RMK A01 T01371055  RH  026%=      5-min Rain = 0
KPD1 102020Z 30006KT 14/M06 A3026 RMK A01 T01361057  RH  026%=      5-min Rain = 0
KPD1 102021Z 31006KT 13/M06 A3026 RMK A01 T01341056  RH  026%=      5-min Rain = 0
KPD1 102022Z 32005KT 13/M05 A3026 RMK A01 T01331054  RH  027%=      5-min Rain = 0
KPD1 102023Z 28003KT 13/M05 A3026 RMK A01 T01331054  RH  027%=      5-min Rain = 0
KPD1 102024Z 26006G12KT 13/M05 A3026 RMK A01 T01341053  RH  027%=      5-min Rain = 0
KPD1 102025Z 25010KT 14/M06 A3026 RMK A01 T01351055  RH  026%=      5-min Rain = 0
KPD1 102026Z 24010KT 14/M06 A3026 RMK A01 T01371056  RH  026%=      5-min Rain = 0
KPD1 102027Z 26008KT 14/M06 A3026 RMK A01 T01361058  RH  025%=      5-min Rain = 0
KPD1 102028Z 25005KT 14/M06 A3026 RMK A01 T01361060  RH  025%=      5-min Rain = 0
KPD1 102029Z 23006KT 14/M06 A3026 RMK A01 T01361061  RH  025%=      5-min Rain = 0
KPD1 102030Z 24006KT 14/M07 A3026 RMK A01 T01381065  RH  024%=      5-min Rain = 0
KPD1 102031Z 25006KT 14/M07 A3026 RMK A01 T01381073  RH  022%=      5-min Rain = 0
KPD1 102032Z 27007KT 14/M07 A3026 RMK A01 T01361070  RH  023%=      5-min Rain = 0
KPD1 102033Z 28007KT 14/M07 A3026 RMK A01 T01371068  RH  023%=      5-min Rain = 0
KPD1 102034Z 27006KT 14/M07 A3026 RMK A01 T01371072  RH  023%=      5-min Rain = 0
KPD1 102035Z 24007KT 14/M07 A3026 RMK A01 T01361071  RH  023%=      5-min Rain = 0
KPD1 102036Z 23006KT 14/M07 A3026 RMK A01 T01371069  RH  023%=      5-min Rain = 0
KPD1 102037Z 23006KT 14/M07 A3026 RMK A01 T01371069  RH  023%=      5-min Rain = 0
KPD1 102038Z 21003KT 14/M07 A3026 RMK A01 T01391065  RH  024%=      5-min Rain = 0
KPD1 102039Z 20001KT 14/M06 A3026 RMK A01 T01401064  RH  024%=      5-min Rain = 0
KPD1 102040Z 25005KT 14/M06 A3026 RMK A01 T01431063  RH  023%=      5-min Rain = 0
KPD1 102041Z 29004KT 14/M07 A3026 RMK A01 T01421066  RH  023%=      5-min Rain = 0
KPD1 102042Z 25006KT 14/M07 A3026 RMK A01 T01411066  RH  023%=      5-min Rain = 0
KPD1 102043Z 26008KT 14/M07 A3026 RMK A01 T01421070  RH  023%=      5-min Rain = 0
KPD1 102044Z 27006KT 14/M07 A3026 RMK A01 T01431074  RH  022%=      5-min Rain = 0
KPD1 102045Z 27007KT 14/M08 A3026 RMK A01 T01411075  RH  022%=      5-min Rain = 0
KPD1 102046Z 28004KT 14/M07 A3026 RMK A01 T01391072  RH  022%=      5-min Rain = 0
KPD1 102047Z 30005KT 14/M07 A3026 RMK A01 T01391072  RH  023%=      5-min Rain = 0
KPD1 102048Z 29005KT 14/M08 A3026 RMK A01 T01391075  RH  022%=      5-min Rain = 0
KPD1 102049Z 30006KT 14/M07 A3026 RMK A01 T01381073  RH  022%=      5-min Rain = 0
KPD1 102050Z 30005KT 14/M07 A3026 RMK A01 T01411071  RH  022%=      5-min Rain = 0
KPD1 102051Z 31004KT 14/M07 A3026 RMK A01 T01421068  RH  023%=      5-min Rain = 0
KPD1 102052Z 30006KT 14/M07 A3026 RMK A01 T01431069  RH  022%=      5-min Rain = 0
KPD1 102053Z 28005KT 14/M07 A3026 RMK A01 T01411069  RH  023%=      5-min Rain = 0
KPD1 102054Z 26005KT 14/M07 A3026 RMK A01 T01411066  RH  023%=      5-min Rain = 0
KPD1 102055Z 29004KT 14/M07 A3026 RMK A01 T01411066  RH  023%=      5-min Rain = 0
KPD1 102056Z 32005KT 14/M07 A3025 RMK A01 T01411067  RH  023%=      5-min Rain = 0
KPD1 102057Z 31004KT 14/M07 A3025 RMK A01 T01411068  RH  023%=      5-min Rain = 0
KPD1 102058Z 29003KT 14/M07 A3025 RMK A01 T01411069  RH  023%=      5-min Rain = 0
KPD1 102059Z 30003KT 14/M07 A3025 RMK A01 T01411069  RH  023%=      5-min Rain = 0
KPD1 102100Z 22001KT 14/M07 A3025 RMK A01 T01421071  RH  022%=      5-min Rain = 0
KPD1 102101Z 28002KT 14/M07 A3025 RMK A01 T01431072  RH  022%=      5-min Rain = 0
KPD1 102102Z 27001KT 15/M07 A3025 RMK A01 T01451070  RH  022%=      5-min Rain = 0
KPD1 102103Z 20002KT 15/M07 A3025 RMK A01 T01451070  RH  022%=      5-min Rain = 0
KPD1 102104Z 29003KT 15/M07 A3025 RMK A01 T01451068  RH  022%=      5-min Rain = 0
KPD1 102105Z 29003KT 15/M07 A3025 RMK A01 T01451066  RH  023%=      5-min Rain = 0
KPD1 102106Z 26003KT 14/M07 A3025 RMK A01 T01441065  RH  023%=      5-min Rain = 0
KPD1 102107Z 23006KT 15/M07 A3025 RMK A01 T01451072  RH  022%=      5-min Rain = 0
KPD1 102108Z 22007KT 14/M08 A3025 RMK A01 T01431077  RH  021%=      5-min Rain = 0
KPD1 102109Z 24006KT 14/M08 A3025 RMK A01 T01441075  RH  021%=      5-min Rain = 0
KPD1 102110Z 23006KT 15/M08 A3025 RMK A01 T01451075  RH  021%=      5-min Rain = 0
KPD1 102111Z 23004KT 15/M08 A3025 RMK A01 T01451075  RH  021%=      5-min Rain = 0
KPD1 102112Z 23005KT 15/M07 A3026 RMK A01 T01451074  RH  021%=      5-min Rain = 0
KPD1 102113Z 21005KT 15/M08 A3025 RMK A01 T01451075  RH  021%=      5-min Rain = 0
KPD1 102114Z 25006KT 14/M08 A3025 RMK A01 T01441075  RH  021%=      5-min Rain = 0
KPD1 102115Z 29006KT 14/M08 A3025 RMK A01 T01431075  RH  021%=      5-min Rain = 0
KPD1 102116Z 28006KT 14/M07 A3025 RMK A01 T01431074  RH  021%=      5-min Rain = 0
KPD1 102117Z 28004KT 14/M08 A3025 RMK A01 T01401079  RH  021%=      5-min Rain = 0
KPD1 102118Z 27004KT 14/M08 A3025 RMK A01 T01381077  RH  022%=      5-min Rain = 0
KPD1 102119Z 26007KT 14/M07 A3025 RMK A01 T01401073  RH  022%=      5-min Rain = 0
KPD1 102120Z 27006KT 14/M07 A3025 RMK A01 T01411073  RH  022%=      5-min Rain = 0
KPD1 102121Z 27007KT 14/M08 A3025 RMK A01 T01401075  RH  022%=      5-min Rain = 0
KPD1 102122Z 28006KT 14/M07 A3025 RMK A01 T01401074  RH  022%=      5-min Rain = 0
KPD1 102123Z 27007KT 14/M07 A3025 RMK A01 T01401074  RH  022%=      5-min Rain = 0
KPD1 102124Z 24007KT 14/M07 A3025 RMK A01 T01411073  RH  022%=      5-min Rain = 0
KPD1 102125Z 25006KT 14/M08 A3025 RMK A01 T01421078  RH  021%=      5-min Rain = 0
KPD1 102126Z 26006KT 14/M08 A3025 RMK A01 T01421079  RH  021%=      5-min Rain = 0
KPD1 102127Z 26004KT 14/M08 A3025 RMK A01 T01421076  RH  021%=      5-min Rain = 0
KPD1 102128Z 25005KT 14/M08 A3025 RMK A01 T01411076  RH  022%=      5-min Rain = 0
KPD1 102129Z 25004KT 14/M08 A3025 RMK A01 T01411076  RH  022%=      5-min Rain = 0
KPD1 102130Z 26006KT 14/M08 A3025 RMK A01 T01421075  RH  022%=      5-min Rain = 0
KPD1 102131Z 25006KT 14/M08 A3025 RMK A01 T01431077  RH  021%=      5-min Rain = 0
KPD1 102132Z 26007KT 14/M08 A3025 RMK A01 T01441078  RH  021%=      5-min Rain = 0
KPD1 102133Z 26005KT 14/M08 A3025 RMK A01 T01441081  RH  020%=      5-min Rain = 0
KPD1 102134Z 26005KT 14/M08 A3025 RMK A01 T01441079  RH  021%=      5-min Rain = 0
KPD1 102135Z 28006KT 15/M08 A3025 RMK A01 T01451075  RH  021%=      5-min Rain = 0
KPD1 102136Z 26003KT 14/M07 A3025 RMK A01 T01431074  RH  021%=      5-min Rain = 0
KPD1 102137Z 27002KT 14/M07 A3025 RMK A01 T01431073  RH  022%=      5-min Rain = 0
KPD1 102138Z 29005KT 14/M07 A3025 RMK A01 T01431073  RH  022%=      5-min Rain = 0
KPD1 102139Z 29005KT 14/M07 A3025 RMK A01 T01431074  RH  022%=      5-min Rain = 0
KPD1 102140Z 27004KT 14/M08 A3025 RMK A01 T01411075  RH  022%=      5-min Rain = 0
KPD1 102141Z 25005KT 14/M08 A3025 RMK A01 T01421075  RH  022%=      5-min Rain = 0
KPD1 102142Z 25003KT 14/M07 A3025 RMK A01 T01431074  RH  022%=      5-min Rain = 0
KPD1 102143Z 28005KT 14/M07 A3025 RMK A01 T01441074  RH  022%=      5-min Rain = 0
KPD1 102144Z 30002KT 14/M08 A3025 RMK A01 T01431076  RH  021%=      5-min Rain = 0
KPD1 102145Z 28004KT 14/M08 A3025 RMK A01 T01421075  RH  022%=      5-min Rain = 0
KPD1 102146Z 28002KT 14/M08 A3025 RMK A01 T01411075  RH  022%=      5-min Rain = 0
KPD1 102147Z 31003KT 14/M07 A3025 RMK A01 T01411074  RH  022%=      5-min Rain = 0
KPD1 102148Z 30004KT 14/M07 A3025 RMK A01 T01401073  RH  022%=      5-min Rain = 0
KPD1 102149Z 30002KT 14/M07 A3025 RMK A01 T01401072  RH  022%=      5-min Rain = 0
KPD1 102150Z 29002KT 14/M07 A3025 RMK A01 T01401071  RH  022%=      5-min Rain = 0
KPD1 102151Z 27002KT 14/M07 A3025 RMK A01 T01401071  RH  022%=      5-min Rain = 0
KPD1 102152Z 26003KT 14/M07 A3025 RMK A01 T01411073  RH  022%=      5-min Rain = 0
KPD1 102153Z 25002KT 14/M07 A3025 RMK A01 T01431073  RH  022%=      5-min Rain = 0
KPD1 102154Z 27003KT 15/M07 A3024 RMK A01 T01471073  RH  021%=      5-min Rain = 0
KPD1 102155Z 29004KT 15/M08 A3024 RMK A01 T01491075  RH  021%=      5-min Rain = 0
KPD1 102156Z 29005KT 15/M08 A3024 RMK A01 T01471079  RH  020%=      5-min Rain = 0
KPD1 102157Z 28005KT 14/M08 A3024 RMK A01 T01441082  RH  020%=      5-min Rain = 0
KPD1 102158Z 26004KT 14/M08 A3024 RMK A01 T01421082  RH  020%=      5-min Rain = 0
KPD1 102159Z 29005KT 14/M08 A3024 RMK A01 T01411081  RH  021%=      5-min Rain = 0
KPD1 102200Z 28005KT 14/M08 A3024 RMK A01 T01411081  RH  021%=      5-min Rain = 0
KPD1 102201Z 29005KT 14/M08 A3024 RMK A01 T01421081  RH  021%=      5-min Rain = 0
KPD1 102202Z 28007KT 14/M08 A3024 RMK A01 T01431079  RH  021%=      5-min Rain = 0
KPD1 102203Z 27006KT 14/M08 A3024 RMK A01 T01431080  RH  021%=      5-min Rain = 0
KPD1 102204Z 28004KT 14/M08 A3024 RMK A01 T01421079  RH  021%=      5-min Rain = 0
KPD1 102205Z 28004KT 14/M08 A3024 RMK A01 T01421080  RH  021%=      5-min Rain = 0
KPD1 102206Z 27003KT 14/M08 A3024 RMK A01 T01411081  RH  021%=      5-min Rain = 0
KPD1 102207Z 27002KT 14/M08 A3024 RMK A01 T01431079  RH  021%=      5-min Rain = 0
KPD1 102208Z 26003KT 15/M08 A3024 RMK A01 T01451078  RH  021%=      5-min Rain = 0
KPD1 102209Z 24002KT 15/M08 A3024 RMK A01 T01451079  RH  020%=      5-min Rain = 0
KPD1 102210Z 26004KT 15/M08 A3024 RMK A01 T01461078  RH  021%=      5-min Rain = 0
KPD1 102211Z 27006KT 15/M08 A3024 RMK A01 T01471080  RH  020%=      5-min Rain = 0
KPD1 102212Z 27006KT 15/M08 A3024 RMK A01 T01451081  RH  020%=      5-min Rain = 0
KPD1 102213Z 26003KT 14/M08 A3024 RMK A01 T01431080  RH  021%=      5-min Rain = 0
KPD1 102214Z 25003KT 14/M08 A3024 RMK A01 T01431079  RH  021%=      5-min Rain = 0
KPD1 102215Z 24003KT 14/M08 A3024 RMK A01 T01431079  RH  021%=      5-min Rain = 0
KPD1 102216Z 27003KT 14/M08 A3024 RMK A01 T01441079  RH  021%=      5-min Rain = 0
KPD1 102217Z 27002KT 14/M08 A3024 RMK A01 T01431082  RH  020%=      5-min Rain = 0
KPD1 102218Z 25002KT 14/M08 A3024 RMK A01 T01431084  RH  020%=      5-min Rain = 0
KPD1 102219Z 24001KT 14/M08 A3024 RMK A01 T01431084  RH  020%=      5-min Rain = 0
KPD1 102220Z 20002KT 14/M08 A3024 RMK A01 T01441083  RH  020%=      5-min Rain = 0
KPD1 102221Z 21003KT 15/M08 A3024 RMK A01 T01461080  RH  020%=      5-min Rain = 0
KPD1 102222Z 21004KT 15/M08 A3024 RMK A01 T01461078  RH  021%=      5-min Rain = 0
KPD1 102223Z 22003KT 15/M08 A3024 RMK A01 T01461077  RH  021%=      5-min Rain = 0
KPD1 102224Z 24003KT 15/M08 A3024 RMK A01 T01451078  RH  021%=      5-min Rain = 0
KPD1 102225Z 23002KT 14/M08 A3024 RMK A01 T01431081  RH  020%=      5-min Rain = 0
KPD1 102226Z 24003KT 14/M08 A3024 RMK A01 T01421081  RH  021%=      5-min Rain = 0
KPD1 102227Z 24002KT 14/M08 A3024 RMK A01 T01421080  RH  021%=      5-min Rain = 0
KPD1 102228Z 25004KT 14/M08 A3024 RMK A01 T01421078  RH  021%=      5-min Rain = 0
KPD1 102229Z 26003KT 14/M08 A3024 RMK A01 T01411078  RH  021%=      5-min Rain = 0
KPD1 102230Z 26003KT 14/M08 A3024 RMK A01 T01421077  RH  021%=      5-min Rain = 0
KPD1 102231Z 26004KT 14/M08 A3024 RMK A01 T01411078  RH  021%=      5-min Rain = 0
KPD1 102232Z 25003KT 14/M08 A3024 RMK A01 T01421078  RH  021%=      5-min Rain = 0
KPD1 102233Z 24002KT 14/M08 A3024 RMK A01 T01431077  RH  021%=      5-min Rain = 0
KPD1 102234Z 26003KT 14/M08 A3024 RMK A01 T01421079  RH  021%=      5-min Rain = 0
KPD1 102235Z 26004KT 14/M08 A3024 RMK A01 T01431078  RH  021%=      5-min Rain = 0
KPD1 102236Z 26002KT 14/M08 A3024 RMK A01 T01421078  RH  021%=      5-min Rain = 0
KPD1 102237Z 28002KT 14/M08 A3024 RMK A01 T01421078  RH  021%=      5-min Rain = 0
KPD1 102238Z 27002KT 14/M08 A3024 RMK A01 T01431078  RH  021%=      5-min Rain = 0
KPD1 102239Z 28002KT 14/M08 A3024 RMK A01 T01431076  RH  021%=      5-min Rain = 0
KPD1 102240Z 27003KT 14/M08 A3024 RMK A01 T01431076  RH  021%=      5-min Rain = 0
KPD1 102241Z 26002KT 14/M08 A3024 RMK A01 T01431076  RH  021%=      5-min Rain = 0
KPD1 102242Z 23002KT 14/M08 A3024 RMK A01 T01431077  RH  021%=      5-min Rain = 0
KPD1 102243Z 24002KT 14/M08 A3024 RMK A01 T01431076  RH  021%=      5-min Rain = 0
KPD1 102244Z 23001KT 14/M08 A3024 RMK A01 T01431078  RH  021%=      5-min Rain = 0
KPD1 102245Z 24000KT 14/M08 A3024 RMK A01 T01431077  RH  021%=      5-min Rain = 0
KPD1 102246Z 23001KT 14/M08 A3024 RMK A01 T01421078  RH  021%=      5-min Rain = 0
KPD1 102247Z 22001KT 14/M08 A3024 RMK A01 T01431078  RH  021%=      5-min Rain = 0
KPD1 102248Z 23002KT 14/M08 A3024 RMK A01 T01431078  RH  021%=      5-min Rain = 0
KPD1 102249Z 24002KT 14/M08 A3025 RMK A01 T01421078  RH  021%=      5-min Rain = 0
KPD1 102250Z 28000KT 14/M08 A3025 RMK A01 T01411076  RH  021%=      5-min Rain = 0
KPD1 102251Z 27000KT 14/M08 A3025 RMK A01 T01401076  RH  022%=      5-min Rain = 0
KPD1 102252Z 00000KT 14/M08 A3025 RMK A01 T01411076  RH  022%=      5-min Rain = 0
KPD1 102253Z 31000KT 14/M08 A3025 RMK A01 T01411076  RH  022%=      5-min Rain = 0
KPD1 102254Z 30000KT 14/M08 A3025 RMK A01 T01401076  RH  022%=      5-min Rain = 0
KPD1 102255Z 32000KT 14/M08 A3025 RMK A01 T01401075  RH  022%=      5-min Rain = 0
KPD1 102256Z 31001KT 14/M07 A3025 RMK A01 T01391073  RH  022%=      5-min Rain = 0
KPD1 102257Z 00000KT 14/M07 A3025 RMK A01 T01381073  RH  022%=      5-min Rain = 0
KPD1 102258Z 31000KT 14/M07 A3025 RMK A01 T01371073  RH  022%=      5-min Rain = 0
KPD1 102259Z 30000KT 14/M08 A3025 RMK A01 T01361075  RH  022%=      5-min Rain = 0
KPD1 102300Z 00000KT 14/M07 A3025 RMK A01 T01351074  RH  023%=      5-min Rain = 0
KPD1 102301Z 00000KT 13/M07 A3025 RMK A01 T01341074  RH  023%=      5-min Rain = 0
KPD1 102302Z 00000KT 13/M07 A3025 RMK A01 T01341073  RH  023%=      5-min Rain = 0
KPD1 102303Z 28001KT 13/M07 A3025 RMK A01 T01331073  RH  023%=      5-min Rain = 0
KPD1 102304Z 28000KT 13/M08 A3025 RMK A01 T01311075  RH  023%=      5-min Rain = 0
KPD1 102305Z 24001KT 13/M07 A3025 RMK A01 T01301074  RH  023%=      5-min Rain = 0
KPD1 102306Z 24002KT 13/M07 A3025 RMK A01 T01291074  RH  024%=      5-min Rain = 0
KPD1 102307Z 23001KT 13/M08 A3025 RMK A01 T01281075  RH  024%=      5-min Rain = 0
KPD1 102308Z 21001KT 13/M07 A3025 RMK A01 T01271074  RH  024%=      5-min Rain = 0
KPD1 102309Z 21001KT 13/M07 A3025 RMK A01 T01251074  RH  024%=      5-min Rain = 0
KPD1 102310Z 21001KT 13/M07 A3025 RMK A01 T01251073  RH  024%=      5-min Rain = 0
KPD1 102311Z 21001KT 12/M07 A3025 RMK A01 T01241074  RH  024%=      5-min Rain = 0
KPD1 102312Z 22001KT 12/M07 A3025 RMK A01 T01221074  RH  025%=      5-min Rain = 0
KPD1 102313Z 22001KT 12/M07 A3025 RMK A01 T01211073  RH  025%=      5-min Rain = 0
KPD1 102314Z 22002KT 12/M07 A3025 RMK A01 T01191073  RH  025%=      5-min Rain = 0
KPD1 102315Z 22002KT 12/M07 A3025 RMK A01 T01181073  RH  026%=      5-min Rain = 0
KPD1 102316Z 22002KT 12/M07 A3025 RMK A01 T01171074  RH  026%=      5-min Rain = 0
KPD1 102317Z 21002KT 12/M07 A3025 RMK A01 T01151074  RH  026%=      5-min Rain = 0
KPD1 102318Z 20002KT 11/M07 A3025 RMK A01 T01141074  RH  026%=      5-min Rain = 0
KPD1 102319Z 20002KT 11/M08 A3025 RMK A01 T01121075  RH  026%=      5-min Rain = 0
KPD1 102320Z 19002KT 11/M08 A3025 RMK A01 T01111075  RH  026%=      5-min Rain = 0
KPD1 102321Z 18001KT 11/M08 A3025 RMK A01 T01091075  RH  027%=      5-min Rain = 0
KPD1 102322Z 18001KT 11/M08 A3025 RMK A01 T01081075  RH  027%=      5-min Rain = 0
KPD1 102323Z 17001KT 11/M08 A3025 RMK A01 T01071075  RH  027%=      5-min Rain = 0
KPD1 102324Z 16001KT 11/M08 A3025 RMK A01 T01071075  RH  027%=      5-min Rain = 0
KPD1 102325Z 16001KT 11/M08 A3025 RMK A01 T01061075  RH  027%=      5-min Rain = 0
KPD1 102326Z 15001KT 11/M08 A3025 RMK A01 T01051075  RH  027%=      5-min Rain = 0
KPD1 102327Z 16002KT 11/M08 A3025 RMK A01 T01051075  RH  028%=      5-min Rain = 0
KPD1 102328Z 15002KT 10/M08 A3025 RMK A01 T01041075  RH  028%=      5-min Rain = 0
KPD1 102329Z 14002KT 10/M08 A3025 RMK A01 T01031075  RH  028%=      5-min Rain = 0
KPD1 102330Z 13002KT 10/M08 A3025 RMK A01 T01031075  RH  028%=      5-min Rain = 0
KPD1 102331Z 13002KT 10/M08 A3025 RMK A01 T01021076  RH  028%=      5-min Rain = 0
KPD1 102332Z 13003KT 10/M08 A3025 RMK A01 T01021077  RH  028%=      5-min Rain = 0
KPD1 102333Z 13003KT 10/M08 A3025 RMK A01 T01021077  RH  028%=      5-min Rain = 0
KPD1 102334Z 14003KT 10/M08 A3025 RMK A01 T01021077  RH  028%=      5-min Rain = 0
KPD1 102335Z 14003KT 10/M08 A3025 RMK A01 T01021077  RH  028%=      5-min Rain = 0
KPD1 102336Z 14003KT 10/M08 A3025 RMK A01 T01031077  RH  027%=      5-min Rain = 0
KPD1 102337Z 14002KT 10/M08 A3025 RMK A01 T01031077  RH  027%=      5-min Rain = 0
KPD1 102338Z 13002KT 10/M08 A3025 RMK A01 T01031077  RH  027%=      5-min Rain = 0
KPD1 102339Z 13002KT 10/M08 A3025 RMK A01 T01021077  RH  028%=      5-min Rain = 0
KPD1 102340Z 13002KT 10/M08 A3025 RMK A01 T01021077  RH  028%=      5-min Rain = 0
KPD1 102341Z 13002KT 10/M08 A3025 RMK A01 T01021077  RH  028%=      5-min Rain = 0
KPD1 102342Z 13002KT 10/M08 A3025 RMK A01 T01011077  RH  028%=      5-min Rain = 0
KPD1 102343Z 13003KT 10/M08 A3025 RMK A01 T01021077  RH  028%=      5-min Rain = 0
KPD1 102344Z 13003KT 10/M08 A3025 RMK A01 T01011078  RH  028%=      5-min Rain = 0
KPD1 102345Z 13003KT 10/M08 A3025 RMK A01 T01011080  RH  027%=      5-min Rain = 0
KPD1 102346Z 14003KT 10/M08 A3025 RMK A01 T01021080  RH  027%=      5-min Rain = 0
KPD1 102347Z 15003KT 10/M08 A3025 RMK A01 T01021081  RH  027%=      5-min Rain = 0
KPD1 102348Z 15003KT 10/M08 A3025 RMK A01 T01021080  RH  027%=      5-min Rain = 0
KPD1 102349Z 15003KT 10/M08 A3025 RMK A01 T01011081  RH  027%=      5-min Rain = 0
KPD1 102350Z 16003KT 10/M08 A3025 RMK A01 T01001081  RH  027%=      5-min Rain = 0
KPD1 102351Z 17002KT 10/M08 A3025 RMK A01 T00991080  RH  028%=      5-min Rain = 0
KPD1 102352Z 16003KT 10/M08 A3025 RMK A01 T00971080  RH  028%=      5-min Rain = 0
KPD1 102353Z 16003KT 10/M08 A3025 RMK A01 T00971080  RH  028%=      5-min Rain = 0
KPD1 102354Z 16003KT 10/M08 A3025 RMK A01 T00961081  RH  028%=      5-min Rain = 0
KPD1 102355Z 16003KT 10/M08 A3025 RMK A01 T00951081  RH  028%=      5-min Rain = 0
KPD1 102356Z 16003KT 10/M08 A3025 RMK A01 T00961080  RH  028%=      5-min Rain = 0
KPD1 102357Z 16003KT 09/M08 A3025 RMK A01 T00941081  RH  028%=      5-min Rain = 0
KPD1 102358Z 16003KT 09/M08 A3025 RMK A01 T00931082  RH  028%=      5-min Rain = 0
KPD1 102359Z 15003KT 09/M08 A3025 RMK A01 T00931082  RH  028%=      5-min Rain = 0
KPD1 110000Z 16004KT 09/M08 A3025 RMK A01 T00921082  RH  028%=      5-min Rain = 0
KPD1 110001Z 16007KT 09/M08 A3025 RMK A01 T00911082  RH  029%=      5-min Rain = 0
KPD1 110002Z 16007KT 09/M08 A3025 RMK A01 T00901081  RH  029%=      5-min Rain = 0
KPD1 110003Z 15006KT 09/M08 A3025 RMK A01 T00881078  RH  030%=      5-min Rain = 0
KPD1 110004Z 14006KT 09/M07 A3025 RMK A01 T00881073  RH  031%=      5-min Rain = 0
KPD1 110005Z 14004KT 09/M07 A3025 RMK A01 T00881069  RH  032%=      5-min Rain = 0
KPD1 110006Z 14004KT 09/M07 A3025 RMK A01 T00891067  RH  033%=      5-min Rain = 0
KPD1 110007Z 14007KT 09/M07 A3025 RMK A01 T00901066  RH  033%=      5-min Rain = 0
KPD1 110008Z 14005KT 09/M07 A3025 RMK A01 T00901065  RH  033%=      5-min Rain = 0
KPD1 110009Z 15004KT 09/M06 A3025 RMK A01 T00901064  RH  033%=      5-min Rain = 0
KPD1 110010Z 16003KT 09/M06 A3025 RMK A01 T00901063  RH  033%=      5-min Rain = 0
KPD1 110011Z 15004KT 09/M06 A3025 RMK A01 T00891064  RH  033%=      5-min Rain = 0
KPD1 110012Z 14005KT 09/M06 A3025 RMK A01 T00881063  RH  034%=      5-min Rain = 0
KPD1 110013Z 14003KT 09/M06 A3025 RMK A01 T00871061  RH  034%=      5-min Rain = 0
KPD1 110014Z 15004KT 09/M06 A3025 RMK A01 T00871060  RH  035%=      5-min Rain = 0
KPD1 110015Z 15005KT 09/M06 A3025 RMK A01 T00871059  RH  035%=      5-min Rain = 0
KPD1 110016Z 15005KT 09/M06 A3025 RMK A01 T00861057  RH  036%=      5-min Rain = 0
KPD1 110017Z 15006KT 09/M06 A3025 RMK A01 T00851056  RH  036%=      5-min Rain = 0
KPD1 110018Z 15005KT 09/M05 A3025 RMK A01 T00861053  RH  037%=      5-min Rain = 0
KPD1 110019Z 15005KT 09/M05 A3025 RMK A01 T00861052  RH  037%=      5-min Rain = 0
KPD1 110020Z 15004KT 09/M05 A3025 RMK A01 T00861051  RH  038%=      5-min Rain = 0
KPD1 110021Z 16004KT 09/M05 A3025 RMK A01 T00851051  RH  038%=      5-min Rain = 0
KPD1 110022Z 15004KT 09/M05 A3025 RMK A01 T00851051  RH  038%=      5-min Rain = 0
KPD1 110023Z 15004KT 09/M05 A3025 RMK A01 T00851051  RH  038%=      5-min Rain = 0
KPD1 110024Z 16004KT 08/M05 A3025 RMK A01 T00841050  RH  038%=      5-min Rain = 0
KPD1 110025Z 16005KT 08/M05 A3025 RMK A01 T00831050  RH  039%=      5-min Rain = 0
KPD1 110026Z 15005KT 08/M05 A3025 RMK A01 T00821049  RH  039%=      5-min Rain = 0
KPD1 110027Z 15004KT 08/M05 A3025 RMK A01 T00811049  RH  039%=      5-min Rain = 0
KPD1 110028Z 15004KT 08/M05 A3025 RMK A01 T00811049  RH  039%=      5-min Rain = 0
KPD1 110029Z 14005KT 08/M05 A3025 RMK A01 T00801049  RH  040%=      5-min Rain = 0
KPD1 110030Z 14005KT 08/M05 A3025 RMK A01 T00801048  RH  040%=      5-min Rain = 0
KPD1 110031Z 15006KT 08/M05 A3025 RMK A01 T00791045  RH  041%=      5-min Rain = 0
KPD1 110032Z 15007KT 08/M04 A3025 RMK A01 T00801044  RH  041%=      5-min Rain = 0
KPD1 110033Z 15007KT 08/M04 A3025 RMK A01 T00801043  RH  041%=      5-min Rain = 0
KPD1 110034Z 15005KT 08/M04 A3025 RMK A01 T00811042  RH  042%=      5-min Rain = 0
KPD1 110035Z 15005KT 08/M04 A3025 RMK A01 T00811041  RH  042%=      5-min Rain = 0
KPD1 110036Z 15005KT 08/M04 A3025 RMK A01 T00811041  RH  042%=      5-min Rain = 0
KPD1 110037Z 15006KT 08/M04 A3025 RMK A01 T00801040  RH  042%=      5-min Rain = 0
KPD1 110038Z 16005KT 08/M04 A3025 RMK A01 T00811039  RH  043%=      5-min Rain = 0
KPD1 110039Z 15005KT 08/M04 A3025 RMK A01 T00801038  RH  043%=      5-min Rain = 0
KPD1 110040Z 15006KT 08/M04 A3025 RMK A01 T00791037  RH  044%=      5-min Rain = 0
KPD1 110041Z 15005KT 08/M04 A3025 RMK A01 T00791036  RH  044%=      5-min Rain = 0
KPD1 110042Z 15005KT 08/M04 A3025 RMK A01 T00791037  RH  044%=      5-min Rain = 0
KPD1 110043Z 15006KT 08/M04 A3025 RMK A01 T00781037  RH  044%=      5-min Rain = 0
KPD1 110044Z 14006KT 08/M04 A3025 RMK A01 T00781036  RH  044%=      5-min Rain = 0
KPD1 110045Z 15005KT 08/M04 A3025 RMK A01 T00781035  RH  045%=      5-min Rain = 0
KPD1 110046Z 15006KT 08/M04 A3025 RMK A01 T00781035  RH  045%=      5-min Rain = 0
KPD1 110047Z 15006KT 08/M04 A3025 RMK A01 T00781035  RH  045%=      5-min Rain = 0
KPD1 110048Z 15005KT 08/M03 A3025 RMK A01 T00781034  RH  045%=      5-min Rain = 0
KPD1 110049Z 15006KT 08/M03 A3025 RMK A01 T00781034  RH  045%=      5-min Rain = 0
KPD1 110050Z 15005KT 08/M03 A3025 RMK A01 T00771033  RH  045%=      5-min Rain = 0
KPD1 110051Z 15005KT 08/M03 A3025 RMK A01 T00771033  RH  046%=      5-min Rain = 0
KPD1 110052Z 15006KT 08/M03 A3025 RMK A01 T00761033  RH  046%=      5-min Rain = 0
KPD1 110053Z 16006KT 08/M03 A3025 RMK A01 T00761033  RH  046%=      5-min Rain = 0
KPD1 110054Z 16006KT 08/M03 A3025 RMK A01 T00771031  RH  046%=      5-min Rain = 0
KPD1 110055Z 15005KT 08/M03 A3025 RMK A01 T00761032  RH  046%=      5-min Rain = 0
KPD1 110056Z 15005KT 08/M03 A3025 RMK A01 T00761032  RH  047%=      5-min Rain = 0
KPD1 110057Z 15005KT 08/M03 A3025 RMK A01 T00751032  RH  047%=      5-min Rain = 0
KPD1 110058Z 14005KT 08/M03 A3025 RMK A01 T00751031  RH  047%=      5-min Rain = 0
KPD1 110059Z 15006KT 08/M03 A3025 RMK A01 T00751031  RH  047%=      5-min Rain = 0
KPD1 110100Z 15005KT 08/M03 A3025 RMK A01 T00751030  RH  047%=      5-min Rain = 0
KPD1 110101Z 15005KT 08/M03 A3025 RMK A01 T00751030  RH  048%=      5-min Rain = 0
KPD1 110102Z 15005KT 07/M03 A3025 RMK A01 T00741029  RH  048%=      5-min Rain = 0
KPD1 110103Z 16006KT 07/M03 A3025 RMK A01 T00741029  RH  048%=      5-min Rain = 0
KPD1 110104Z 16006KT 07/M03 A3025 RMK A01 T00741028  RH  048%=      5-min Rain = 0
KPD1 110105Z 16006KT 07/M03 A3025 RMK A01 T00741028  RH  048%=      5-min Rain = 0
KPD1 110106Z 17006KT 07/M03 A3025 RMK A01 T00741028  RH  049%=      5-min Rain = 0
KPD1 110107Z 17006KT 07/M03 A3025 RMK A01 T00741027  RH  049%=      5-min Rain = 0
KPD1 110108Z 16005KT 07/M03 A3025 RMK A01 T00741027  RH  049%=      5-min Rain = 0
KPD1 110109Z 17005KT 07/M03 A3025 RMK A01 T00741026  RH  049%=      5-min Rain = 0
KPD1 110110Z 16005KT 07/M03 A3025 RMK A01 T00741026  RH  049%=      5-min Rain = 0
KPD1 110111Z 16006KT 07/M03 A3025 RMK A01 T00731026  RH  049%=      5-min Rain = 0
KPD1 110112Z 16007KT 07/M03 A3025 RMK A01 T00731025  RH  050%=      5-min Rain = 0
KPD1 110113Z 16007KT 07/M03 A3025 RMK A01 T00731025  RH  050%=      5-min Rain = 0
KPD1 110114Z 16005KT 07/M03 A3025 RMK A01 T00731025  RH  050%=      5-min Rain = 0
KPD1 110115Z 16005KT 07/M03 A3025 RMK A01 T00731025  RH  050%=      5-min Rain = 0
KPD1 110116Z 16005KT 07/M03 A3025 RMK A01 T00731025  RH  050%=      5-min Rain = 0
KPD1 110117Z 17006KT 07/M03 A3025 RMK A01 T00731025  RH  050%=      5-min Rain = 0
KPD1 110118Z 17005KT 07/M03 A3025 RMK A01 T00731026  RH  050%=      5-min Rain = 0
KPD1 110119Z 17005KT 07/M03 A3025 RMK A01 T00721026  RH  050%=      5-min Rain = 0
KPD1 110120Z 16005KT 07/M03 A3025 RMK A01 T00711027  RH  050%=      5-min Rain = 0
KPD1 110121Z 17005KT 07/M03 A3025 RMK A01 T00711026  RH  050%=      5-min Rain = 0
KPD1 110122Z 17005KT 07/M03 A3025 RMK A01 T00701027  RH  050%=      5-min Rain = 0
KPD1 110123Z 17005KT 07/M03 A3025 RMK A01 T00691027  RH  050%=      5-min Rain = 0
KPD1 110124Z 17005KT 07/M03 A3025 RMK A01 T00691027  RH  051%=      5-min Rain = 0
KPD1 110125Z 17005KT 07/M03 A3025 RMK A01 T00691026  RH  051%=      5-min Rain = 0
KPD1 110126Z 17005KT 07/M03 A3025 RMK A01 T00691026  RH  051%=      5-min Rain = 0
KPD1 110127Z 17005KT 07/M03 A3025 RMK A01 T00681027  RH  051%=      5-min Rain = 0
KPD1 110128Z 17005KT 07/M03 A3025 RMK A01 T00681027  RH  051%=      5-min Rain = 0
KPD1 110129Z 17006KT 07/M03 A3025 RMK A01 T00671026  RH  051%=      5-min Rain = 0
KPD1 110130Z 17006KT 07/M03 A3025 RMK A01 T00671026  RH  051%=      5-min Rain = 0
KPD1 110131Z 16005KT 07/M03 A3025 RMK A01 T00671026  RH  051%=      5-min Rain = 0
KPD1 110132Z 16006KT 07/M03 A3025 RMK A01 T00671027  RH  051%=      5-min Rain = 0
KPD1 110133Z 16005KT 07/M03 A3025 RMK A01 T00671026  RH  051%=      5-min Rain = 0
KPD1 110134Z 16005KT 07/M03 A3025 RMK A01 T00671026  RH  052%=      5-min Rain = 0
KPD1 110135Z 16004KT 07/M03 A3025 RMK A01 T00681025  RH  052%=      5-min Rain = 0
KPD1 110136Z 15004KT 07/M03 A3025 RMK A01 T00671026  RH  052%=      5-min Rain = 0
KPD1 110137Z 16004KT 07/M03 A3025 RMK A01 T00661027  RH  051%=      5-min Rain = 0
KPD1 110138Z 16005KT 07/M03 A3025 RMK A01 T00661027  RH  051%=      5-min Rain = 0
KPD1 110139Z 16004KT 07/M03 A3025 RMK A01 T00651029  RH  051%=      5-min Rain = 0
KPD1 110140Z 17005KT 07/M03 A3025 RMK A01 T00651029  RH  051%=      5-min Rain = 0
KPD1 110141Z 16004KT 07/M03 A3025 RMK A01 T00651029  RH  051%=      5-min Rain = 0
KPD1 110142Z 17004KT 06/M03 A3025 RMK A01 T00641029  RH  051%=      5-min Rain = 0
KPD1 110143Z 16004KT 06/M03 A3025 RMK A01 T00631029  RH  051%=      5-min Rain = 0
KPD1 110144Z 17005KT 06/M03 A3025 RMK A01 T00621030  RH  052%=      5-min Rain = 0
KPD1 110145Z 18005KT 06/M03 A3025 RMK A01 T00611031  RH  052%=      5-min Rain = 0
KPD1 110146Z 19004KT 06/M03 A3025 RMK A01 T00601031  RH  052%=      5-min Rain = 0
KPD1 110147Z 18003KT 06/M03 A3025 RMK A01 T00591032  RH  052%=      5-min Rain = 0
KPD1 110148Z 17003KT 06/M03 A3025 RMK A01 T00581031  RH  053%=      5-min Rain = 0
KPD1 110149Z 17004KT 06/M03 A3025 RMK A01 T00571031  RH  053%=      5-min Rain = 0
KPD1 110150Z 17005KT 06/M03 A3025 RMK A01 T00571030  RH  053%=      5-min Rain = 0
KPD1 110151Z 17005KT 06/M03 A3025 RMK A01 T00581026  RH  055%=      5-min Rain = 0
KPD1 110152Z 17007KT 06/M02 A3025 RMK A01 T00581023  RH  056%=      5-min Rain = 0
KPD1 110153Z 18007KT 06/M02 A3025 RMK A01 T00591019  RH  057%=      5-min Rain = 0
KPD1 110154Z 18008KT 06/M02 A3025 RMK A01 T00601016  RH  058%=      5-min Rain = 0
KPD1 110155Z 18008KT 06/M01 A3025 RMK A01 T00601012  RH  060%=      5-min Rain = 0
KPD1 110156Z 17007KT 06/M01 A3025 RMK A01 T00621010  RH  060%=      5-min Rain = 0
KPD1 110157Z 19007KT 06/M01 A3025 RMK A01 T00631010  RH  059%=      5-min Rain = 0
KPD1 110158Z 19007KT 06/M01 A3025 RMK A01 T00641010  RH  059%=      5-min Rain = 0
KPD1 110159Z 19008KT 06/M01 A3025 RMK A01 T00641011  RH  059%=      5-min Rain = 0
KPD1 110200Z 19006KT 06/M01 A3025 RMK A01 T00631011  RH  059%=      5-min Rain = 0
KPD1 110201Z 19006KT 06/M01 A3025 RMK A01 T00611011  RH  060%=      5-min Rain = 0
KPD1 110202Z 19007KT 06/M01 A3025 RMK A01 T00601011  RH  061%=      5-min Rain = 0
KPD1 110203Z 19007KT 06/M01 A3025 RMK A01 T00591011  RH  061%=      5-min Rain = 0
KPD1 110204Z 18006KT 06/M01 A3025 RMK A01 T00581010  RH  061%=      5-min Rain = 0
KPD1 110205Z 19007KT 06/M01 A3025 RMK A01 T00581010  RH  062%=      5-min Rain = 0
KPD1 110206Z 19007KT 06/M01 A3025 RMK A01 T00571010  RH  062%=      5-min Rain = 0
KPD1 110207Z 19007KT 06/M01 A3025 RMK A01 T00571010  RH  062%=      5-min Rain = 0
KPD1 110208Z 18005KT 06/M01 A3025 RMK A01 T00561010  RH  062%=      5-min Rain = 0
KPD1 110209Z 18007KT 06/M01 A3025 RMK A01 T00551010  RH  063%=      5-min Rain = 0
KPD1 110210Z 18007KT 05/M01 A3025 RMK A01 T00541010  RH  063%=      5-min Rain = 0
KPD1 110211Z 18009KT 05/M01 A3025 RMK A01 T00531010  RH  064%=      5-min Rain = 0
KPD1 110212Z 18008KT 05/M01 A3025 RMK A01 T00531009  RH  064%=      5-min Rain = 0
KPD1 110213Z 18008KT 05/M01 A3025 RMK A01 T00521009  RH  064%=      5-min Rain = 0
KPD1 110214Z 18007KT 05/M01 A3025 RMK A01 T00521009  RH  065%=      5-min Rain = 0
KPD1 110215Z 16007KT 05/M01 A3025 RMK A01 T00521009  RH  065%=      5-min Rain = 0
KPD1 110216Z 17007KT 05/M01 A3025 RMK A01 T00511010  RH  065%=      5-min Rain = 0
KPD1 110217Z 17008KT 05/M01 A3025 RMK A01 T00501010  RH  065%=      5-min Rain = 0
KPD1 110218Z 18009KT 05/M01 A3025 RMK A01 T00491010  RH  065%=      5-min Rain = 0
KPD1 110219Z 18007KT 05/M01 A3025 RMK A01 T00491010  RH  066%=      5-min Rain = 0
KPD1 110220Z 18007KT 05/M01 A3025 RMK A01 T00481010  RH  066%=      5-min Rain = 0
KPD1 110221Z 17009KT 05/M01 A3025 RMK A01 T00471010  RH  066%=      5-min Rain = 0
KPD1 110222Z 17007KT 05/M01 A3025 RMK A01 T00471011  RH  066%=      5-min Rain = 0
KPD1 110223Z 17007KT 05/M01 A3025 RMK A01 T00461011  RH  067%=      5-min Rain = 0
KPD1 110224Z 17008KT 05/M01 A3025 RMK A01 T00461011  RH  067%=      5-min Rain = 0
KPD1 110225Z 17008KT 05/M01 A3025 RMK A01 T00451011  RH  067%=      5-min Rain = 0
KPD1 110226Z 17009KT 05/M01 A3025 RMK A01 T00451011  RH  067%=      5-min Rain = 0
KPD1 110227Z 18006KT 04/M01 A3025 RMK A01 T00441011  RH  068%=      5-min Rain = 0
KPD1 110228Z 17007KT 04/M01 A3025 RMK A01 T00431011  RH  068%=      5-min Rain = 0
KPD1 110229Z 18007KT 04/M01 A3025 RMK A01 T00421012  RH  068%=      5-min Rain = 0
KPD1 110230Z 19007KT 04/M01 A3025 RMK A01 T00411011  RH  068%=      5-min Rain = 0
KPD1 110231Z 19007KT 04/M01 A3026 RMK A01 T00411012  RH  069%=      5-min Rain = 0
KPD1 110232Z 19007KT 04/M01 A3026 RMK A01 T00401011  RH  069%=      5-min Rain = 0
KPD1 110233Z 19007KT 04/M01 A3026 RMK A01 T00391012  RH  069%=      5-min Rain = 0
KPD1 110234Z 18006KT 04/M01 A3026 RMK A01 T00391012  RH  069%=      5-min Rain = 0
KPD1 110235Z 18006KT 04/M01 A3026 RMK A01 T00381012  RH  069%=      5-min Rain = 0
KPD1 110236Z 18006KT 04/M01 A3026 RMK A01 T00381012  RH  070%=      5-min Rain = 0
KPD1 110237Z 18005KT 04/M01 A3026 RMK A01 T00371013  RH  070%=      5-min Rain = 0
KPD1 110238Z 18007KT 04/M01 A3026 RMK A01 T00361013  RH  070%=      5-min Rain = 0
KPD1 110239Z 18006KT 04/M01 A3026 RMK A01 T00361013  RH  070%=      5-min Rain = 0
KPD1 110240Z 18006KT 04/M01 A3026 RMK A01 T00361012  RH  070%=      5-min Rain = 0
KPD1 110241Z 18005KT 04/M01 A3026 RMK A01 T00371013  RH  070%=      5-min Rain = 0
KPD1 110242Z 17005KT 04/M01 A3026 RMK A01 T00361013  RH  070%=      5-min Rain = 0
KPD1 110243Z 18005KT 04/M01 A3026 RMK A01 T00351014  RH  070%=      5-min Rain = 0
KPD1 110244Z 18007KT 04/M01 A3026 RMK A01 T00351014  RH  070%=      5-min Rain = 0
KPD1 110245Z 17008KT 04/M01 A3026 RMK A01 T00351014  RH  070%=      5-min Rain = 0
KPD1 110246Z 18007KT 04/M01 A3026 RMK A01 T00361014  RH  070%=      5-min Rain = 0
KPD1 110247Z 18007KT 04/M02 A3026 RMK A01 T00361015  RH  069%=      5-min Rain = 0
KPD1 110248Z 19008KT 04/M02 A3026 RMK A01 T00351015  RH  070%=      5-min Rain = 0
KPD1 110249Z 18009KT 04/M02 A3026 RMK A01 T00351015  RH  070%=      5-min Rain = 0
KPD1 110250Z 18008KT 04/M01 A3026 RMK A01 T00351014  RH  070%=      5-min Rain = 0
KPD1 110251Z 18010KT 04/M02 A3026 RMK A01 T00351015  RH  070%=      5-min Rain = 0
KPD1 110252Z 20010KT 04/M01 A3026 RMK A01 T00361014  RH  070%=      5-min Rain = 0
KPD1 110253Z 19009KT 04/M01 A3026 RMK A01 T00371013  RH  069%=      5-min Rain = 0
KPD1 110254Z 19008KT 04/M01 A3026 RMK A01 T00381014  RH  069%=      5-min Rain = 0
KPD1 110255Z 18008KT 04/M01 A3026 RMK A01 T00391014  RH  069%=      5-min Rain = 0
KPD1 110256Z 18007KT 04/M02 A3026 RMK A01 T00381015  RH  069%=      5-min Rain = 0
KPD1 110257Z 18007KT 04/M02 A3026 RMK A01 T00361016  RH  069%=      5-min Rain = 0
KPD1 110258Z 19008KT 04/M02 A3026 RMK A01 T00361015  RH  069%=      5-min Rain = 0
KPD1 110259Z 18007KT 04/M02 A3026 RMK A01 T00361015  RH  069%=      5-min Rain = 0
KPD1 110300Z 19006KT 04/M02 A3026 RMK A01 T00361015  RH  069%=      5-min Rain = 0
KPD1 110301Z 18008KT 04/M02 A3026 RMK A01 T00361016  RH  069%=      5-min Rain = 0
KPD1 110302Z 18006KT 04/M02 A3026 RMK A01 T00361016  RH  069%=      5-min Rain = 0
KPD1 110303Z 19006KT 04/M02 A3026 RMK A01 T00361016  RH  069%=      5-min Rain = 0
KPD1 110304Z 18005KT 04/M02 A3026 RMK A01 T00361016  RH  069%=      5-min Rain = 0
KPD1 110305Z 18005KT 04/M02 A3026 RMK A01 T00351017  RH  069%=      5-min Rain = 0
KPD1 110306Z 18005KT 03/M02 A3026 RMK A01 T00341017  RH  069%=      5-min Rain = 0
KPD1 110307Z 19005KT 03/M02 A3026 RMK A01 T00331018  RH  069%=      5-min Rain = 0
KPD1 110308Z 18005KT 03/M02 A3026 RMK A01 T00341017  RH  069%=      5-min Rain = 0
KPD1 110309Z 18005KT 03/M02 A3026 RMK A01 T00341017  RH  069%=      5-min Rain = 0
KPD1 110310Z 18006KT 03/M02 A3026 RMK A01 T00341017  RH  069%=      5-min Rain = 0
KPD1 110311Z 20006KT 03/M02 A3026 RMK A01 T00331018  RH  069%=      5-min Rain = 0
KPD1 110312Z 18005KT 03/M02 A3026 RMK A01 T00331019  RH  069%=      5-min Rain = 0
KPD1 110313Z 19006KT 03/M02 A3026 RMK A01 T00321018  RH  069%=      5-min Rain = 0
KPD1 110314Z 19006KT 03/M02 A3026 RMK A01 T00321017  RH  070%=      5-min Rain = 0
KPD1 110315Z 19006KT 03/M02 A3026 RMK A01 T00331017  RH  070%=      5-min Rain = 0
KPD1 110316Z 19008KT 03/M02 A3026 RMK A01 T00321018  RH  070%=      5-min Rain = 0
KPD1 110317Z 19007KT 03/M02 A3025 RMK A01 T00321018  RH  070%=      5-min Rain = 0
KPD1 110318Z 19010KT 03/M02 A3025 RMK A01 T00331017  RH  070%=      5-min Rain = 0
KPD1 110319Z 18008KT 04/M02 A3025 RMK A01 T00351017  RH  069%=      5-min Rain = 0
KPD1 110320Z 19007KT 04/M02 A3025 RMK A01 T00351017  RH  069%=      5-min Rain = 0
KPD1 110321Z 18006KT 04/M02 A3025 RMK A01 T00351017  RH  069%=      5-min Rain = 0
KPD1 110322Z 18007KT 04/M02 A3025 RMK A01 T00351017  RH  069%=      5-min Rain = 0
KPD1 110323Z 18007KT 03/M02 A3025 RMK A01 T00341017  RH  069%=      5-min Rain = 0
KPD1 110324Z 19008KT 03/M02 A3025 RMK A01 T00331018  RH  069%=      5-min Rain = 0
KPD1 110325Z 18006KT 03/M02 A3025 RMK A01 T00341018  RH  069%=      5-min Rain = 0
KPD1 110326Z 18006KT 04/M02 A3025 RMK A01 T00351018  RH  068%=      5-min Rain = 0
KPD1 110327Z 18005KT 04/M02 A3025 RMK A01 T00351018  RH  068%=      5-min Rain = 0
KPD1 110328Z 17007KT 04/M02 A3025 RMK A01 T00351019  RH  068%=      5-min Rain = 0
KPD1 110329Z 19008KT 03/M02 A3025 RMK A01 T00341018  RH  068%=      5-min Rain = 0
KPD1 110330Z 17005KT 04/M02 A3025 RMK A01 T00351018  RH  068%=      5-min Rain = 0
KPD1 110331Z 17006KT 03/M02 A3025 RMK A01 T00341018  RH  068%=      5-min Rain = 0
KPD1 110332Z 17005KT 03/M02 A3025 RMK A01 T00341018  RH  069%=      5-min Rain = 0
KPD1 110333Z 17005KT 03/M02 A3025 RMK A01 T00331019  RH  069%=      5-min Rain = 0
KPD1 110334Z 18006KT 03/M02 A3025 RMK A01 T00321019  RH  069%=      5-min Rain = 0
KPD1 110335Z 19007KT 03/M02 A3025 RMK A01 T00321019  RH  069%=      5-min Rain = 0
KPD1 110336Z 18006KT 03/M02 A3025 RMK A01 T00331018  RH  070%=      5-min Rain = 0
KPD1 110337Z 18008KT 03/M02 A3025 RMK A01 T00331018  RH  069%=      5-min Rain = 0
KPD1 110338Z 18008KT 03/M02 A3025 RMK A01 T00331018  RH  069%=      5-min Rain = 0
KPD1 110339Z 18004KT 03/M02 A3025 RMK A01 T00341017  RH  069%=      5-min Rain = 0
KPD1 110340Z 19007KT 04/M02 A3025 RMK A01 T00351017  RH  069%=      5-min Rain = 0
KPD1 110341Z 19009KT 03/M02 A3025 RMK A01 T00341018  RH  069%=      5-min Rain = 0
KPD1 110342Z 19008KT 04/M02 A3025 RMK A01 T00351018  RH  069%=      5-min Rain = 0
KPD1 110343Z 18007KT 04/M02 A3025 RMK A01 T00351017  RH  069%=      5-min Rain = 0
KPD1 110344Z 19008KT 04/M02 A3025 RMK A01 T00361016  RH  069%=      5-min Rain = 0
KPD1 110345Z 18007KT 04/M02 A3025 RMK A01 T00361017  RH  068%=      5-min Rain = 0
KPD1 110346Z 18006KT 04/M02 A3025 RMK A01 T00351017  RH  068%=      5-min Rain = 0
KPD1 110347Z 19007KT 04/M02 A3025 RMK A01 T00351018  RH  068%=      5-min Rain = 0
KPD1 110348Z 18007KT 03/M02 A3025 RMK A01 T00341019  RH  068%=      5-min Rain = 0
KPD1 110349Z 20008KT 03/M02 A3025 RMK A01 T00341019  RH  069%=      5-min Rain = 0
KPD1 110350Z 17008KT 04/M02 A3025 RMK A01 T00351018  RH  068%=      5-min Rain = 0
KPD1 110351Z 17006KT 04/M02 A3025 RMK A01 T00351018  RH  068%=      5-min Rain = 0
KPD1 110352Z 19006KT 04/M02 A3025 RMK A01 T00351018  RH  068%=      5-min Rain = 0
KPD1 110353Z 20007KT 03/M02 A3025 RMK A01 T00341020  RH  068%=      5-min Rain = 0
KPD1 110354Z 19008KT 03/M02 A3025 RMK A01 T00341020  RH  068%=      5-min Rain = 0
KPD1 110355Z 18009KT 03/M02 A3025 RMK A01 T00341020  RH  068%=      5-min Rain = 0
KPD1 110356Z 20009KT 03/M02 A3025 RMK A01 T00341020  RH  068%=      5-min Rain = 0
KPD1 110357Z 20007KT 03/M02 A3025 RMK A01 T00341020  RH  068%=      5-min Rain = 0
KPD1 110358Z 21009KT 04/M02 A3025 RMK A01 T00351020  RH  067%=      5-min Rain = 0
KPD1 110359Z 20009KT 04/M02 A3025 RMK A01 T00371019  RH  067%=      5-min Rain = 0
KPD1 110400Z 21011KT 04/M02 A3025 RMK A01 T00381020  RH  066%=      5-min Rain = 0
KPD1 110401Z 21009KT 04/M02 A3025 RMK A01 T00401019  RH  065%=      5-min Rain = 0
KPD1 110402Z 21009G14KT 04/M02 A3025 RMK A01 T00411020  RH  064%=      5-min Rain = 0
KPD1 110403Z 21011G16KT 04/M02 A3025 RMK A01 T00421020  RH  064%=      5-min Rain = 0
KPD1 110404Z 20010KT 04/M02 A3025 RMK A01 T00431020  RH  064%=      5-min Rain = 0
KPD1 110405Z 20010KT 04/M02 A3025 RMK A01 T00431021  RH  063%=      5-min Rain = 0
KPD1 110406Z 20010KT 04/M02 A3025 RMK A01 T00421021  RH  063%=      5-min Rain = 0
KPD1 110407Z 20010KT 04/M02 A3026 RMK A01 T00421021  RH  063%=      5-min Rain = 0
KPD1 110408Z 20007KT 04/M02 A3026 RMK A01 T00411022  RH  064%=      5-min Rain = 0
KPD1 110409Z 20007KT 04/M02 A3026 RMK A01 T00401022  RH  064%=      5-min Rain = 0
KPD1 110410Z 19008KT 04/M02 A3026 RMK A01 T00391022  RH  064%=      5-min Rain = 0
KPD1 110411Z 19009KT 04/M02 A3026 RMK A01 T00381022  RH  065%=      5-min Rain = 0
KPD1 110412Z 19007KT 04/M02 A3026 RMK A01 T00381022  RH  065%=      5-min Rain = 0
KPD1 110413Z 19007KT 04/M02 A3026 RMK A01 T00381022  RH  065%=      5-min Rain = 0
KPD1 110414Z 19008KT 04/M02 A3026 RMK A01 T00371022  RH  065%=      5-min Rain = 0
KPD1 110415Z 19008KT 04/M02 A3026 RMK A01 T00371022  RH  065%=      5-min Rain = 0
KPD1 110416Z 19009KT 04/M02 A3026 RMK A01 T00371022  RH  066%=      5-min Rain = 0
KPD1 110417Z 18006KT 04/M02 A3026 RMK A01 T00371022  RH  066%=      5-min Rain = 0
KPD1 110418Z 18009KT 04/M02 A3026 RMK A01 T00361022  RH  066%=      5-min Rain = 0
KPD1 110419Z 19008KT 04/M02 A3026 RMK A01 T00361021  RH  066%=      5-min Rain = 0
KPD1 110420Z 18006KT 04/M02 A3026 RMK A01 T00361021  RH  066%=      5-min Rain = 0
KPD1 110421Z 17005KT 04/M02 A3026 RMK A01 T00351022  RH  066%=      5-min Rain = 0
KPD1 110422Z 17006KT 03/M02 A3026 RMK A01 T00341023  RH  066%=      5-min Rain = 0
KPD1 110423Z 17006KT 03/M03 A3026 RMK A01 T00311025  RH  067%=      5-min Rain = 0
KPD1 110424Z 19006KT 03/M02 A3026 RMK A01 T00301024  RH  068%=      5-min Rain = 0
KPD1 110425Z 19008KT 03/M02 A3026 RMK A01 T00291023  RH  068%=      5-min Rain = 0
KPD1 110426Z 17005KT 03/M02 A3026 RMK A01 T00291023  RH  069%=      5-min Rain = 0
KPD1 110427Z 18006KT 03/M02 A3026 RMK A01 T00291023  RH  069%=      5-min Rain = 0
KPD1 110428Z 17006KT 03/M02 A3026 RMK A01 T00291023  RH  069%=      5-min Rain = 0
KPD1 110429Z 18006KT 03/M02 A3026 RMK A01 T00281023  RH  069%=      5-min Rain = 0
KPD1 110430Z 17005KT 03/M02 A3026 RMK A01 T00281023  RH  069%=      5-min Rain = 0
KPD1 110431Z 19008KT 03/M02 A3026 RMK A01 T00271024  RH  069%=      5-min Rain = 0
KPD1 110432Z 19006KT 03/M02 A3026 RMK A01 T00271023  RH  070%=      5-min Rain = 0
KPD1 110433Z 19008KT 03/M02 A3026 RMK A01 T00271022  RH  070%=      5-min Rain = 0
KPD1 110434Z 19008KT 03/M02 A3026 RMK A01 T00291021  RH  070%=      5-min Rain = 0
KPD1 110435Z 17006KT 03/M02 A3026 RMK A01 T00301021  RH  069%=      5-min Rain = 0
KPD1 110436Z 16006KT 03/M02 A3026 RMK A01 T00301021  RH  069%=      5-min Rain = 0
KPD1 110437Z 16006KT 03/M02 A3026 RMK A01 T00301022  RH  069%=      5-min Rain = 0
KPD1 110438Z 17006G11KT 03/M02 A3026 RMK A01 T00271024  RH  069%=      5-min Rain = 0
KPD1 110439Z 19007G12KT 03/M02 A3026 RMK A01 T00261024  RH  070%=      5-min Rain = 0
KPD1 110440Z 19007KT 03/M02 A3026 RMK A01 T00261023  RH  070%=      5-min Rain = 0
KPD1 110441Z 18005KT 03/M02 A3026 RMK A01 T00271022  RH  071%=      5-min Rain = 0
KPD1 110442Z 18007KT 03/M02 A3026 RMK A01 T00271022  RH  070%=      5-min Rain = 0
KPD1 110443Z 19006KT 03/M02 A3026 RMK A01 T00261023  RH  070%=      5-min Rain = 0
KPD1 110444Z 19009KT 03/M02 A3026 RMK A01 T00251023  RH  071%=      5-min Rain = 0
KPD1 110445Z 20011G16KT 03/M02 A3026 RMK A01 T00261020  RH  071%=      5-min Rain = 0
KPD1 110446Z 20009KT 03/M02 A3026 RMK A01 T00291018  RH  071%=      5-min Rain = 0
KPD1 110447Z 20010KT 03/M02 A3026 RMK A01 T00311017  RH  071%=      5-min Rain = 0
KPD1 110448Z 19009KT 03/M02 A3026 RMK A01 T00321018  RH  070%=      5-min Rain = 0
KPD1 110449Z 19010KT 03/M02 A3026 RMK A01 T00321018  RH  070%=      5-min Rain = 0
KPD1 110450Z 19008KT 03/M02 A3026 RMK A01 T00311019  RH  070%=      5-min Rain = 0
KPD1 110451Z 19008G13KT 03/M02 A3026 RMK A01 T00301019  RH  070%=      5-min Rain = 0
KPD1 110452Z 19010G15KT 03/M02 A3026 RMK A01 T00301019  RH  070%=      5-min Rain = 0
KPD1 110453Z 19010KT 03/M02 A3026 RMK A01 T00301019  RH  070%=      5-min Rain = 0
KPD1 110454Z 19010KT 03/M02 A3026 RMK A01 T00301019  RH  070%=      5-min Rain = 0
KPD1 110455Z 19007KT 03/M02 A3026 RMK A01 T00301019  RH  070%=      5-min Rain = 0
KPD1 110456Z 19009KT 03/M02 A3026 RMK A01 T00281020  RH  070%=      5-min Rain = 0
KPD1 110457Z 19010G15KT 03/M02 A3026 RMK A01 T00281020  RH  071%=      5-min Rain = 0
KPD1 110458Z 19009KT 03/M02 A3026 RMK A01 T00281020  RH  071%=      5-min Rain = 0
KPD1 110459Z 20011KT 03/M02 A3026 RMK A01 T00271020  RH  071%=      5-min Rain = 0
KPD1 110500Z 20011KT 03/M02 A3026 RMK A01 T00271019  RH  072%=      5-min Rain = 0
KPD1 110501Z 19010KT 03/M02 A3026 RMK A01 T00271019  RH  072%=      5-min Rain = 0
KPD1 110502Z 20011KT 03/M02 A3026 RMK A01 T00271019  RH  071%=      5-min Rain = 0
KPD1 110503Z 20011KT 03/M02 A3026 RMK A01 T00271019  RH  072%=      5-min Rain = 0
KPD1 110504Z 20011KT 03/M02 A3026 RMK A01 T00271018  RH  072%=      5-min Rain = 0
KPD1 110505Z 18009KT 03/M02 A3026 RMK A01 T00281017  RH  072%=      5-min Rain = 0
KPD1 110506Z 19009KT 03/M02 A3026 RMK A01 T00271019  RH  071%=      5-min Rain = 0
KPD1 110507Z 19011KT 03/M02 A3026 RMK A01 T00261020  RH  072%=      5-min Rain = 0
KPD1 110508Z 19010KT 03/M02 A3026 RMK A01 T00251020  RH  072%=      5-min Rain = 0
KPD1 110509Z 18010KT 02/M02 A3026 RMK A01 T00241021  RH  072%=      5-min Rain = 0
KPD1 110510Z 18009KT 02/M02 A3026 RMK A01 T00231021  RH  073%=      5-min Rain = 0
KPD1 110511Z 18011KT 02/M02 A3026 RMK A01 T00231020  RH  073%=      5-min Rain = 0
KPD1 110512Z 18010G15KT 02/M02 A3026 RMK A01 T00231021  RH  073%=      5-min Rain = 0
KPD1 110513Z 19011KT 02/M02 A3026 RMK A01 T00231020  RH  073%=      5-min Rain = 0
KPD1 110514Z 19012KT 02/M02 A3026 RMK A01 T00231020  RH  073%=      5-min Rain = 0
KPD1 110515Z 19011KT 02/M02 A3026 RMK A01 T00231020  RH  073%=      5-min Rain = 0
KPD1 110516Z 19008KT 02/M02 A3026 RMK A01 T00231020  RH  073%=      5-min Rain = 0
KPD1 110517Z 20010KT 02/M02 A3026 RMK A01 T00221020  RH  073%=      5-min Rain = 0
KPD1 110518Z 20009KT 02/M02 A3026 RMK A01 T00221020  RH  074%=      5-min Rain = 0
KPD1 110519Z 20009KT 02/M02 A3026 RMK A01 T00211021  RH  074%=      5-min Rain = 0
KPD1 110520Z 19010KT 02/M02 A3026 RMK A01 T00201021  RH  074%=      5-min Rain = 0
KPD1 110521Z 20011G17KT 02/M02 A3025 RMK A01 T00201021  RH  074%=      5-min Rain = 0
KPD1 110522Z 20010KT 02/M02 A3025 RMK A01 T00221018  RH  075%=      5-min Rain = 0
KPD1 110523Z 20010KT 02/M02 A3025 RMK A01 T00221018  RH  075%=      5-min Rain = 0
KPD1 110524Z 19011KT 02/M02 A3025 RMK A01 T00231018  RH  074%=      5-min Rain = 0
KPD1 110525Z 20008G13KT 02/M02 A3025 RMK A01 T00231018  RH  074%=      5-min Rain = 0
KPD1 110526Z 20011KT 02/M02 A3025 RMK A01 T00231019  RH  074%=      5-min Rain = 0
KPD1 110527Z 19010KT 02/M02 A3025 RMK A01 T00221019  RH  074%=      5-min Rain = 0
KPD1 110528Z 20012KT 02/M02 A3025 RMK A01 T00221019  RH  074%=      5-min Rain = 0
KPD1 110529Z 20012KT 02/M02 A3025 RMK A01 T00221018  RH  075%=      5-min Rain = 0
KPD1 110530Z 19010KT 02/M02 A3025 RMK A01 T00221018  RH  075%=      5-min Rain = 0
KPD1 110531Z 20010KT 02/M02 A3025 RMK A01 T00221018  RH  075%=      5-min Rain = 0
KPD1 110532Z 19010KT 02/M02 A3025 RMK A01 T00221018  RH  075%=      5-min Rain = 0
KPD1 110533Z 19008KT 02/M02 A3025 RMK A01 T00211019  RH  075%=      5-min Rain = 0
KPD1 110534Z 20010KT 02/M02 A3025 RMK A01 T00211019  RH  075%=      5-min Rain = 0
KPD1 110535Z 19010KT 02/M02 A3025 RMK A01 T00211019  RH  075%=      5-min Rain = 0
KPD1 110536Z 18009KT 02/M02 A3025 RMK A01 T00211018  RH  076%=      5-min Rain = 0
KPD1 110537Z 18008KT 02/M02 A3025 RMK A01 T00211018  RH  075%=      5-min Rain = 0
KPD1 110538Z 19007KT 02/M02 A3025 RMK A01 T00211019  RH  075%=      5-min Rain = 0
KPD1 110539Z 20009KT 02/M02 A3025 RMK A01 T00191020  RH  075%=      5-min Rain = 0
KPD1 110540Z 20008KT 02/M02 A3025 RMK A01 T00191019  RH  076%=      5-min Rain = 0
KPD1 110541Z 19008KT 02/M02 A3025 RMK A01 T00191019  RH  076%=      5-min Rain = 0
KPD1 110542Z 19007KT 02/M02 A3025 RMK A01 T00191019  RH  076%=      5-min Rain = 0
KPD1 110543Z 19009KT 02/M02 A3025 RMK A01 T00191019  RH  076%=      5-min Rain = 0
KPD1 110544Z 19010KT 02/M02 A3025 RMK A01 T00181019  RH  076%=      5-min Rain = 0
KPD1 110545Z 18008KT 02/M02 A3025 RMK A01 T00191018  RH  077%=      5-min Rain = 0
KPD1 110546Z 19008KT 02/M02 A3025 RMK A01 T00201017  RH  077%=      5-min Rain = 0
KPD1 110547Z 19008KT 02/M02 A3025 RMK A01 T00201017  RH  076%=      5-min Rain = 0
KPD1 110548Z 20007KT 02/M02 A3025 RMK A01 T00201017  RH  076%=      5-min Rain = 0
KPD1 110549Z 20010KT 02/M02 A3024 RMK A01 T00191018  RH  076%=      5-min Rain = 0
KPD1 110550Z 20008KT 02/M02 A3024 RMK A01 T00191017  RH  077%=      5-min Rain = 0
KPD1 110551Z 20009KT 02/M02 A3024 RMK A01 T00201017  RH  076%=      5-min Rain = 0
KPD1 110552Z 19010KT 02/M02 A3024 RMK A01 T00191018  RH  077%=      5-min Rain = 0
KPD1 110553Z 20007KT 02/M02 A3024 RMK A01 T00201017  RH  077%=      5-min Rain = 0
KPD1 110554Z 19008KT 02/M02 A3024 RMK A01 T00201017  RH  076%=      5-min Rain = 0
KPD1 110555Z 19008KT 02/M02 A3024 RMK A01 T00201017  RH  076%=      5-min Rain = 0
KPD1 110556Z 19008KT 02/M02 A3024 RMK A01 T00201017  RH  076%=      5-min Rain = 0
KPD1 110557Z 18009KT 02/M02 A3024 RMK A01 T00191018  RH  076%=      5-min Rain = 0
KPD1 110558Z 18006KT 02/M02 A3024 RMK A01 T00191018  RH  076%=      5-min Rain = 0
KPD1 110559Z 19005KT 02/M02 A3024 RMK A01 T00191019  RH  076%=      5-min Rain = 0

Page generated in 0.035 seconds.